GFSGBSN_sfc_wetblb_000.txt.gz
Wetbulb
55.64 55.51 55.37 55.61 55.89 55.83 55.75 55.55 55.64 55.73 55.93 55.89 55.99 56.35 56.33 56.53 56.62 56.93 57.32 57.47 57.16 56.98 57.42 58.16 59.41 60.61 55.75 51.67 52.42 61.08 74.87 74.49 66.96 59.81 57.29 55.10 55.13 55.70 53.03 53.63 56.39 58.62 60.79 62.30 63.07 61.53 61.52
55.34 55.10 55.13 55.78 55.37 55.19 55.28 55.30 55.33 55.14 55.40 55.75 56.18 56.43 56.59 56.63 56.70 57.12 57.20 57.06 56.87 56.70 57.20 58.04 59.76 59.85 52.41 45.40 55.95 60.44 64.17 62.79 59.47 56.34 54.61 55.17 55.81 57.30 54.55 53.01 53.62 61.05 61.74 61.88 62.05 61.01 61.47
54.79 54.58 54.70 55.08 55.03 54.84 54.99 54.96 55.19 55.27 55.16 55.44 55.89 56.23 56.35 56.37 56.32 56.35 56.77 56.42 55.94 56.29 56.93 57.64 59.77 59.16 54.51 49.55 57.21 60.04 58.35 56.17 56.02 55.79 52.95 56.14 57.28 54.82 54.44 52.54 56.44 61.25 58.40 59.24 60.81 61.36 61.71
54.95 55.05 54.81 55.43 55.38 55.31 55.21 55.01 55.29 55.53 55.58 55.66 55.50 55.86 56.06 56.14 56.14 56.16 55.89 55.45 55.54 56.87 57.68 57.72 59.86 56.64 49.60 59.39 59.99 58.19 56.73 55.78 56.00 54.49 55.17 55.83 57.23 54.88 52.56 54.88 54.71 54.84 54.34 50.79 58.01 61.25 62.27
55.82 55.93 55.84 55.66 55.33 55.08 55.04 55.14 55.18 55.06 55.05 55.31 55.41 55.37 55.53 55.69 55.57 55.31 54.56 54.72 55.90 58.98 57.92 59.87 54.97 54.55 52.41 65.66 59.65 59.38 58.53 55.62 53.49 53.30 53.67 57.78 54.89 52.05 53.33 51.04 47.03 49.72 47.77 51.37 53.94 59.33 60.40
56.14 55.68 55.56 55.05 55.16 55.03 54.96 55.00 55.02 54.87 54.73 55.03 54.92 54.72 54.92 54.97 54.81 54.21 53.75 54.25 55.68 58.32 59.24 60.56 60.49 51.79 55.23 57.96 60.07 59.70 58.23 57.63 52.67 51.51 52.50 51.73 50.05 50.14 49.26 46.99 42.28 46.31 48.81 52.97 52.42 55.95 57.12
55.61 55.05 54.50 54.57 54.91 54.92 54.96 54.85 54.83 54.77 54.77 54.91 54.57 54.32 54.32 54.44 54.17 53.42 51.57 48.45 48.35 50.69 57.01 54.11 54.67 55.00 57.22 59.24 61.87 57.05 58.30 56.69 52.56 49.47 45.74 49.00 46.54 45.37 49.65 50.15 50.64 50.90 51.90 52.49 55.02 56.10 58.31
55.17 54.79 54.68 54.67 55.22 54.79 54.85 54.75 54.53 54.59 54.72 54.53 54.12 54.10 54.28 54.11 53.48 52.97 50.73 45.15 47.96 52.23 48.21 56.39 58.57 58.66 60.14 60.00 58.04 58.49 57.17 53.53 48.78 45.27 47.53 46.39 45.42 51.17 54.17 53.75 51.55 49.86 50.43 51.87 54.92 56.36 54.50
55.10 55.19 55.24 55.07 54.87 54.67 54.56 54.51 54.32 54.22 54.18 54.22 53.93 54.09 53.97 53.63 52.83 50.81 49.52 51.57 55.16 51.11 46.43 51.72 55.06 55.06 55.74 57.36 56.39 56.26 54.39 53.23 47.81 46.10 47.25 44.33 48.64 54.83 54.49 52.82 51.18 47.88 50.86 51.82 52.75 56.07 56.14
55.37 55.27 55.05 54.83 54.71 54.50 54.33 54.47 54.44 54.24 54.01 53.95 54.01 54.21 53.68 52.09 46.79 47.99 47.72 50.15 52.91 51.82 41.92 47.27 49.69 53.79 55.70 56.88 52.86 58.79 56.39 53.86 48.17 46.48 47.57 46.63 51.33 52.73 53.06 51.95 50.99 44.13 51.58 55.40 55.21 53.98 47.88
55.26 54.97 54.79 54.60 54.36 54.04 54.10 54.24 54.11 54.09 53.93 53.84 53.97 53.80 52.81 51.76 46.26 46.72 50.00 51.73 51.97 51.11 35.49 52.06 52.59 58.09 55.19 52.67 52.70 52.37 56.25 51.24 48.22 47.59 46.75 46.20 49.25 49.68 50.05 52.12 51.61 48.99 51.37 50.43 55.58 52.90 49.12
54.78 54.54 54.67 54.32 54.01 53.80 53.83 53.84 53.83 53.80 53.80 53.89 53.62 53.17 52.46 48.63 47.50 48.76 51.65 50.31 48.81 42.46 36.76 50.57 52.20 50.72 50.57 51.69 52.62 53.08 52.60 51.77 52.00 48.53 47.52 48.38 53.17 51.71 51.77 53.87 52.54 53.58 50.01 47.33 47.13 45.02 41.34
54.26 53.88 53.97 54.21 53.67 53.72 53.80 53.64 53.70 53.66 53.56 53.11 52.31 51.33 50.82 50.73 42.83 47.38 47.11 46.81 40.64 36.35 49.33 48.51 46.35 49.47 48.61 48.91 50.78 50.49 48.97 47.09 45.99 41.51 42.40 47.17 49.36 51.88 53.38 48.21 50.58 48.98 42.99 38.31 37.83 37.52 37.72
53.55 54.19 53.69 53.61 53.42 53.68 53.66 53.78 53.68 53.38 53.25 52.48 50.80 50.22 49.65 50.41 49.19 48.93 45.23 41.67 35.44 45.16 45.05 49.36 49.36 49.42 46.46 48.52 48.94 50.85 46.90 45.35 46.90 44.95 41.88 42.05 42.16 49.53 51.39 48.94 47.06 45.97 44.27 39.11 35.58 37.49 40.11
53.09 53.41 53.36 53.30 53.17 53.41 53.43 53.45 53.13 52.97 52.74 51.69 50.42 46.44 47.35 49.26 50.94 46.57 43.16 35.16 38.49 43.33 48.95 48.34 47.94 45.01 45.43 47.52 48.11 49.34 46.50 46.55 48.40 46.48 43.69 40.29 42.53 51.01 51.59 52.17 49.85 46.66 43.27 47.18 42.43 41.73 40.29
52.74 53.21 52.61 53.03 53.21 53.15 52.94 52.94 52.61 52.74 52.56 51.37 46.85 43.65 45.85 51.27 52.15 45.71 39.93 37.08 40.96 48.10 49.36 48.81 42.56 45.33 43.14 44.69 45.67 46.65 46.53 48.63 48.52 49.33 47.18 44.07 40.70 47.23 51.71 50.96 50.73 49.39 49.54 43.15 40.62 36.68 34.99
52.86 52.81 52.37 52.39 52.96 52.79 52.94 52.92 52.51 52.18 51.94 51.14 42.28 41.85 49.06 53.03 50.60 42.65 34.84 37.31 43.71 47.53 48.04 46.77 45.16 44.82 45.94 45.35 47.08 45.96 47.47 49.57 50.92 50.29 47.60 46.73 43.00 45.83 47.64 45.97 46.32 47.62 45.21 44.03 43.62 41.20 37.71
52.93 53.01 52.66 52.30 52.32 52.42 52.86 52.82 52.03 51.39 50.79 47.44 40.56 36.50 50.06 53.03 43.40 41.19 37.54 41.33 45.89 44.67 47.51 46.70 48.31 47.73 46.61 47.94 46.56 47.71 47.23 49.09 52.66 51.88 46.56 46.18 42.46 42.67 45.18 49.90 50.60 49.63 47.13 44.78 41.06 39.48 39.65
52.88 52.61 52.20 51.64 51.95 51.43 52.05 52.09 51.43 50.81 51.01 47.26 38.03 39.05 48.14 48.40 38.80 39.27 43.59 46.76 47.18 45.59 44.65 45.71 46.94 49.04 49.71 47.73 45.71 49.79 50.31 54.38 52.50 51.70 48.83 48.53 41.47 41.00 41.94 44.69 46.80 47.64 47.56 46.68 43.42 41.85 40.22
51.60 51.87 51.85 51.81 51.18 51.24 51.82 51.52 50.95 50.80 50.79 48.81 39.50 37.27 43.11 44.39 41.83 41.04 40.29 43.46 45.46 51.28 49.08 49.78 48.73 49.89 48.75 47.57 49.90 48.16 48.88 53.24 53.99 52.65 58.95 54.50 42.04 42.66 41.81 42.75 46.21 45.03 47.87 48.19 45.17 40.98 40.59
51.30 51.30 51.54 51.73 51.41 51.20 51.40 51.48 51.07 50.64 50.63 48.58 41.55 40.40 40.08 36.93 39.30 38.68 38.71 44.18 46.05 46.62 51.02 49.90 47.52 50.88 49.73 44.75 47.62 49.51 53.11 53.51 54.78 56.73 55.56 48.33 42.17 44.11 45.50 49.09 49.68 49.43 48.85 48.42 45.19 45.71 44.49
50.48 51.01 50.97 51.14 51.41 51.45 51.14 51.57 51.23 50.85 50.58 44.16 41.28 39.82 41.52 37.62 38.35 39.86 40.09 41.40 43.70 45.94 48.35 46.94 48.32 51.65 50.65 46.99 51.25 49.35 50.71 47.90 48.54 52.28 48.93 45.83 43.16 45.34 46.18 48.75 49.37 47.75 50.30 50.82 50.73 49.59 48.36
50.38 50.56 51.03 50.99 50.92 51.19 51.14 51.38 51.25 50.74 49.53 42.66 43.28 45.06 41.03 38.36 37.38 37.65 38.77 42.24 43.21 45.41 50.55 52.54 51.26 50.66 49.82 51.38 53.12 52.47 52.69 51.68 52.22 48.71 48.33 45.65 44.34 42.48 41.22 47.12 48.50 45.89 48.36 49.13 50.07 52.30 50.00
50.66 51.02 51.13 51.08 51.21 51.19 51.12 50.76 51.42 51.17 50.25 48.04 44.58 45.20 39.40 35.98 37.64 40.43 41.05 44.65 44.15 45.72 44.63 52.01 51.68 48.02 54.53 54.36 53.61 53.25 51.57 51.31 52.77 51.10 50.06 46.06 43.44 41.69 41.82 42.04 38.88 46.93 52.83 54.77 53.00 53.38 53.35
50.44 50.74 51.00 51.02 50.98 51.16 51.33 51.23 50.80 51.46 51.23 44.47 45.48 44.90 40.35 35.04 39.94 41.21 42.66 42.69 43.08 45.88 46.06 48.71 50.80 51.69 51.93 49.41 46.82 46.31 47.76 48.41 50.57 52.05 51.08 51.03 48.49 44.09 39.69 38.63 42.79 48.81 51.90 52.49 51.23 51.09 55.06
50.40 50.59 50.76 50.70 50.56 51.07 51.08 50.92 51.02 51.51 51.27 45.99 46.44 47.91 43.36 36.97 36.35 42.42 40.39 42.07 38.43 39.74 44.20 48.05 50.27 50.19 51.29 46.31 45.53 41.29 42.76 46.42 46.82 48.27 49.30 51.39 50.31 47.71 44.47 40.25 38.19 44.91 53.99 56.23 54.18 46.24 55.29
49.91 50.23 50.32 50.44 50.77 50.81 50.88 51.00 50.87 51.02 51.16 48.73 45.99 48.55 43.14 39.43 40.47 39.67 37.90 37.76 39.97 40.18 41.16 44.52 43.97 47.26 52.04 44.13 40.48 40.29 41.69 48.06 44.18 43.09 43.78 45.76 46.89 43.39 42.31 41.02 43.85 51.69 55.52 56.14 44.51 46.05 54.95
49.76 49.98 49.93 50.13 50.45 50.45 50.45 50.69 50.78 51.08 50.79 48.11 46.12 48.88 46.35 42.55 43.19 44.13 44.74 40.45 40.96 41.15 38.95 42.82 44.29 46.62 49.29 45.22 42.53 41.25 40.83 44.07 45.88 48.03 47.09 47.48 45.77 44.16 44.02 41.52 39.29 55.29 54.87 50.98 51.72 53.64 55.77
49.58 49.55 49.49 49.87 50.00 50.34 50.34 50.45 50.66 50.86 50.57 49.73 44.61 48.11 48.86 42.81 42.32 46.36 46.99 47.53 46.62 46.57 41.70 39.28 39.65 43.14 46.88 44.00 45.92 45.47 45.15 46.25 44.44 43.73 50.60 47.32 50.05 49.04 48.70 47.21 52.72 54.84 53.76 53.96 54.53 53.65 55.46

GFSGBSN_sfc_wetblb_003.txt.gz
Wetbulb
55.42 54.89 55.37 55.28 55.30 55.16 55.31 55.60 55.71 55.73 55.33 55.62 55.76 55.80 55.99 56.16 56.37 56.49 56.83 56.97 56.82 56.77 57.10 57.61 58.37 59.65 54.61 48.51 50.59 60.22 73.44 73.62 69.16 60.31 56.21 53.75 53.63 54.48 52.59 53.32 53.84 53.65 58.58 60.44 61.63 60.45 61.55
54.91 55.30 55.33 55.20 54.95 54.75 54.88 54.98 55.25 55.18 55.18 55.32 55.91 56.14 56.18 56.34 56.09 56.32 56.76 56.90 56.61 56.28 56.97 57.69 58.15 59.76 51.27 44.75 54.34 58.95 63.28 66.36 61.82 57.53 54.97 54.25 53.07 56.32 54.36 52.39 50.91 58.61 59.80 60.07 59.15 58.95 60.25
55.15 55.17 55.20 55.10 54.84 54.64 54.54 54.81 54.81 55.37 55.36 55.32 55.54 55.87 55.93 55.93 56.11 55.88 55.98 56.16 55.60 55.90 56.99 58.10 57.70 59.00 53.31 50.70 56.18 56.10 57.21 57.25 54.44 56.91 52.41 54.33 54.66 53.28 53.26 52.37 55.47 60.51 56.04 58.20 58.64 59.02 59.00
55.15 54.99 55.05 54.88 54.82 54.88 54.77 54.68 54.58 54.99 55.38 55.46 55.63 55.57 55.70 55.57 55.59 55.90 55.69 55.24 55.31 56.65 58.24 57.97 58.75 56.14 48.66 57.11 59.36 59.24 55.41 54.01 54.51 53.48 53.68 53.63 56.44 53.71 53.12 54.34 56.30 56.33 53.64 52.87 57.22 60.13 61.06
55.16 54.88 54.73 54.57 54.63 55.05 55.02 54.86 54.90 55.01 55.09 55.11 55.11 55.18 55.16 55.29 55.23 55.04 54.34 54.49 55.64 59.36 58.43 58.53 54.29 52.80 51.05 62.49 60.21 61.11 56.57 54.33 53.13 52.53 53.76 56.95 52.45 50.91 50.76 49.17 46.63 49.60 50.65 49.85 54.09 59.57 59.50
55.08 54.88 54.71 54.50 54.34 54.84 54.85 54.91 54.81 54.91 54.84 54.84 54.76 54.48 54.51 54.51 54.55 53.96 53.70 54.38 54.50 57.06 58.43 59.65 59.71 51.48 53.31 54.13 59.35 58.21 56.69 55.91 52.46 50.61 50.93 49.77 48.50 46.79 46.88 45.86 42.13 50.18 47.19 52.21 52.99 58.24 57.14
54.89 54.65 54.58 54.24 54.14 54.46 54.55 54.59 54.66 54.84 54.92 54.76 54.74 54.39 54.26 54.38 54.04 53.31 51.40 46.74 47.30 47.95 54.54 50.76 50.76 53.78 55.63 58.35 60.00 57.28 56.73 54.11 50.85 47.91 44.93 46.96 44.90 43.62 46.14 49.48 49.58 50.64 49.01 52.27 55.65 56.54 56.44
54.76 54.51 54.32 54.07 53.97 54.27 53.94 54.32 54.48 54.57 54.80 54.70 54.57 54.24 54.18 54.10 53.41 52.72 49.55 44.95 46.34 49.25 43.58 51.78 53.17 54.58 58.01 58.01 54.96 56.61 56.88 51.99 47.62 43.82 45.18 44.05 43.04 47.37 50.61 51.52 50.15 48.50 46.10 48.81 52.54 56.88 56.48
54.41 54.11 54.03 54.14 54.63 54.48 54.07 53.89 53.94 54.02 54.08 54.30 54.30 54.24 53.92 53.49 52.64 49.59 45.74 46.68 50.71 47.35 42.80 48.98 52.40 53.03 54.21 57.04 54.07 54.56 54.67 51.66 46.93 43.79 44.12 41.66 45.21 51.09 52.13 50.87 50.21 46.42 45.97 47.29 50.47 55.00 56.92
53.88 54.63 54.64 54.62 54.32 54.01 53.60 53.77 53.85 53.77 53.92 53.98 54.22 54.12 53.71 51.88 44.72 46.09 46.37 47.63 48.50 48.04 39.89 45.16 48.39 51.71 53.57 55.06 51.81 57.87 55.71 52.36 47.39 45.87 45.30 44.49 48.58 50.53 50.71 50.07 50.14 42.83 49.80 51.11 52.25 51.88 47.51
54.21 54.40 54.14 54.07 53.91 53.43 53.34 53.81 53.73 53.83 53.79 53.89 53.94 53.75 52.37 51.62 46.08 45.13 47.36 47.94 47.65 48.65 33.38 49.14 50.61 55.50 51.93 51.62 51.66 53.41 55.19 51.18 48.45 45.16 45.02 43.86 47.11 47.09 48.39 50.76 51.19 49.33 50.72 49.25 51.30 50.52 48.65
53.52 53.74 53.25 53.20 53.63 53.29 53.50 53.42 53.59 53.50 53.44 53.59 53.53 52.94 51.69 48.67 47.25 47.90 49.44 47.38 46.71 40.69 34.48 47.37 51.88 49.31 48.19 49.58 51.05 50.96 51.87 51.46 51.45 46.16 45.16 46.27 49.90 49.24 49.13 51.39 52.13 52.66 48.28 45.41 44.76 44.94 42.09
53.26 53.16 52.97 52.74 52.62 53.32 53.22 53.11 53.05 52.93 52.75 52.63 51.96 51.33 50.32 50.07 42.93 45.36 45.40 45.35 38.83 34.53 46.41 45.65 45.04 47.16 45.75 46.22 49.32 48.70 47.41 46.39 45.16 40.18 39.46 45.45 46.88 48.59 51.53 47.67 49.26 47.41 42.17 36.94 37.84 39.43 40.01
52.55 52.97 53.54 53.12 52.97 53.28 53.05 52.97 52.84 52.66 52.17 51.58 50.57 50.04 49.28 49.86 48.96 48.48 43.53 40.10 33.80 42.50 42.33 46.29 47.29 46.97 44.52 47.06 47.48 48.12 44.78 45.46 45.85 43.29 41.24 39.35 40.18 46.97 49.37 48.49 46.11 44.56 43.15 37.93 33.41 34.58 40.32
52.28 52.69 53.37 52.97 52.89 52.80 52.82 52.80 52.49 52.21 51.73 50.93 50.08 44.35 44.92 47.38 49.77 45.18 42.17 33.55 37.20 41.61 47.40 46.28 45.40 42.49 42.57 45.58 45.63 46.44 44.72 45.38 47.18 45.18 41.19 38.02 40.23 48.00 50.00 50.10 49.49 45.33 41.01 44.61 39.00 37.90 37.50
52.52 52.56 53.03 52.83 52.72 52.53 52.45 52.51 52.28 52.02 51.53 50.66 46.05 41.95 43.55 50.12 50.00 43.25 38.54 35.52 38.60 46.35 47.63 45.72 40.43 43.14 40.01 42.30 43.01 43.16 43.26 47.44 46.78 47.04 46.15 43.31 38.81 45.31 49.63 49.69 49.02 48.25 47.32 40.78 38.38 34.90 33.95
52.72 52.63 52.53 52.50 52.33 52.24 52.16 52.16 51.85 51.71 50.95 50.66 40.42 37.80 43.82 49.76 45.82 40.31 33.32 35.66 40.76 45.30 45.45 43.29 42.63 42.41 42.57 42.25 43.47 41.41 43.71 47.73 49.81 49.21 47.90 43.29 40.99 42.48 46.15 44.67 45.05 45.25 42.35 41.00 41.38 38.73 36.29
51.91 52.38 52.56 52.74 52.20 51.99 51.97 52.05 51.52 50.73 50.08 48.02 38.14 31.95 45.60 48.35 40.60 36.68 34.24 38.71 44.45 42.76 44.93 43.62 44.20 43.68 42.39 44.28 43.04 42.68 43.41 46.46 51.40 50.81 44.30 44.49 41.35 40.96 42.46 46.54 48.20 46.59 45.73 44.83 42.35 37.67 36.61
51.83 51.83 51.67 52.29 52.66 51.58 51.67 51.76 51.12 50.26 50.33 46.80 39.16 35.78 45.71 44.91 35.68 36.76 40.71 44.31 46.17 45.35 45.65 43.21 42.40 45.12 47.97 45.59 41.43 44.24 46.25 51.02 53.14 50.54 47.37 44.26 38.79 36.50 39.01 41.55 44.30 44.41 45.61 42.69 41.35 40.08 38.82
51.69 51.38 51.54 51.50 51.71 51.95 51.56 51.51 50.88 50.50 50.32 47.97 39.48 34.31 40.32 41.04 38.70 37.11 37.01 39.25 42.16 50.19 48.50 49.41 46.19 48.40 47.59 45.01 46.93 45.39 47.45 52.16 53.81 50.24 58.32 52.18 38.41 42.91 40.55 41.33 44.46 43.68 46.23 45.73 43.83 39.79 39.01
51.26 50.80 50.97 51.27 51.32 51.33 51.82 51.51 51.04 50.60 50.27 47.72 40.12 37.16 38.25 35.05 37.75 36.83 35.79 39.65 42.21 42.40 46.80 48.85 44.92 47.37 48.56 43.87 46.39 47.27 50.09 52.06 54.96 56.62 53.62 47.26 41.48 40.65 45.67 46.22 46.28 46.41 46.48 46.47 44.49 44.73 44.11
50.88 50.67 50.86 51.02 51.36 51.16 51.28 51.47 51.18 50.58 49.91 44.52 39.04 38.37 40.77 39.18 37.15 37.04 36.91 37.35 40.61 42.13 42.98 44.98 44.69 50.63 49.92 45.67 48.76 47.27 49.29 48.81 50.52 51.49 48.39 43.90 41.33 43.10 41.80 45.49 46.24 45.54 47.77 48.58 48.86 45.31 45.10
50.71 50.75 51.01 51.33 51.17 51.10 51.35 51.62 51.07 50.45 47.81 39.52 40.77 42.28 40.34 40.15 37.09 35.52 36.32 39.26 41.83 43.31 44.77 46.29 50.78 48.66 48.47 50.50 52.28 51.96 51.99 51.11 51.80 48.41 47.25 41.56 44.33 39.54 41.78 43.74 46.07 42.20 46.32 48.07 48.99 49.68 48.39
50.60 50.77 50.82 50.95 50.96 50.80 51.09 51.48 51.47 50.75 48.83 45.82 43.17 44.24 41.10 36.92 38.05 37.92 40.39 41.58 41.85 42.47 41.12 46.28 48.33 48.00 51.67 52.57 52.87 52.07 50.38 49.45 50.13 51.24 49.27 44.69 41.03 39.49 42.35 42.06 38.74 44.20 50.76 52.11 51.58 53.33 51.89
50.71 50.84 50.96 50.97 51.08 50.93 51.00 50.67 51.07 51.26 50.82 43.35 44.96 44.04 42.27 38.02 39.34 40.07 40.77 40.53 41.65 41.22 42.51 46.43 49.33 48.95 49.06 47.60 46.51 45.89 46.83 47.09 48.17 50.45 49.83 47.57 42.26 40.68 38.72 38.58 44.45 48.38 51.58 50.92 50.82 49.32 53.18
50.35 50.43 50.37 50.63 50.78 50.56 50.96 50.22 50.49 51.26 50.92 45.46 41.61 45.49 43.16 39.93 36.65 41.36 39.07 39.86 36.55 35.48 37.73 45.04 49.62 48.44 46.59 44.28 44.95 41.40 42.60 45.54 45.74 47.86 49.62 47.65 46.52 44.69 39.17 38.42 39.06 47.12 52.59 55.57 52.82 46.56 54.31
50.05 50.16 50.07 50.11 50.37 50.50 51.04 51.02 50.41 50.60 51.07 45.74 43.06 47.02 44.16 40.77 41.64 39.53 36.34 36.20 39.52 38.71 34.55 42.06 42.99 43.61 49.97 42.89 40.22 38.44 40.19 47.51 44.76 42.47 42.62 44.86 44.86 43.34 41.70 40.66 44.04 51.23 53.38 55.12 45.62 45.13 54.21
49.87 49.74 49.77 49.84 49.97 50.05 50.15 50.22 50.35 50.43 50.62 46.38 42.49 45.90 43.93 42.35 41.28 43.28 43.59 40.22 39.93 38.64 35.25 40.79 41.12 45.19 44.84 43.57 43.40 43.10 39.98 44.89 46.37 48.38 44.98 44.18 45.29 45.38 44.41 41.59 40.15 53.90 53.25 49.53 50.68 51.19 52.55
49.84 49.65 49.74 49.41 49.39 49.66 50.20 50.26 50.43 50.62 50.73 49.34 42.32 46.62 48.23 42.86 40.59 44.36 45.88 47.03 45.57 44.44 40.38 40.56 38.71 42.92 43.84 42.14 42.90 43.80 44.38 43.52 43.26 43.70 51.13 45.91 49.48 47.16 46.49 44.12 50.18 52.56 51.92 53.85 53.18 53.58 52.68

GFSGBSN_sfc_wetblb_006.txt.gz
Wetbulb
55.26 55.14 55.14 55.41 55.18 55.07 55.04 55.11 55.34 55.23 55.27 55.35 55.28 55.32 55.49 55.58 55.73 56.14 56.37 56.68 56.78 56.65 56.98 57.48 57.86 58.04 53.71 46.94 50.08 55.37 70.32 73.30 69.49 62.39 55.65 52.78 51.00 51.53 51.37 52.28 53.18 51.69 53.39 58.93 60.97 59.27 60.69
55.22 55.17 55.04 54.87 55.02 54.96 54.76 54.78 54.93 54.97 54.75 54.85 54.93 55.49 55.72 55.84 55.59 55.91 56.59 56.57 56.45 56.04 56.63 57.45 58.01 57.77 49.70 44.85 54.85 56.06 63.44 65.87 61.64 56.88 54.28 53.30 53.11 55.01 53.43 52.62 50.52 53.39 57.87 58.81 58.68 58.48 59.06
55.26 55.40 55.15 54.73 54.63 54.78 54.46 54.48 54.65 54.52 54.57 54.73 54.83 54.79 55.33 55.70 55.25 55.39 56.12 56.00 55.36 55.77 56.94 58.13 57.51 57.91 51.75 50.02 55.72 57.35 55.31 58.77 57.69 55.23 53.05 54.01 53.91 52.56 52.42 51.34 53.23 58.74 55.29 57.51 57.56 58.07 60.18
55.31 55.14 55.05 54.95 54.93 54.72 54.32 54.45 54.39 54.65 54.90 55.14 55.36 54.98 54.79 54.75 54.91 55.58 55.49 55.10 54.92 56.51 59.34 58.37 58.57 55.00 47.64 56.93 57.13 59.76 56.11 52.90 54.19 53.36 53.58 53.04 53.58 51.00 51.28 53.33 56.07 53.69 53.90 50.95 56.26 58.54 60.78
55.40 54.97 54.84 54.80 54.93 55.07 54.92 54.67 54.41 54.61 54.87 54.97 55.03 55.13 55.19 55.23 55.09 54.78 54.27 54.25 55.40 58.64 58.57 59.14 53.93 51.16 50.01 61.84 57.12 58.82 56.14 53.39 52.19 51.78 53.19 56.26 52.81 49.27 50.25 49.17 49.32 49.98 48.55 49.24 53.49 58.37 58.98
55.06 54.64 54.49 54.51 54.00 54.77 54.78 54.63 54.59 54.44 54.62 54.72 54.62 54.68 54.65 54.78 54.61 53.92 53.31 54.10 54.13 56.38 58.21 59.22 59.16 50.84 53.31 52.98 56.06 57.49 55.85 54.61 51.48 50.37 50.79 49.49 46.84 45.97 45.21 47.36 44.60 47.58 49.42 48.49 52.04 55.98 57.45
54.81 54.37 54.10 54.13 53.95 54.40 54.55 54.21 54.16 54.12 54.19 54.41 54.45 54.23 54.29 54.29 53.76 52.94 50.95 45.38 45.95 45.77 50.92 49.25 49.48 52.19 53.97 55.02 58.14 56.14 55.53 53.24 49.49 46.34 43.32 45.09 43.78 41.69 45.90 48.35 52.40 50.91 51.19 52.42 53.76 56.46 54.61
54.41 54.19 53.95 53.79 53.68 53.76 53.45 53.55 53.78 53.80 53.88 54.45 54.23 54.14 54.10 53.71 52.83 52.33 47.25 43.05 45.58 46.19 40.75 48.18 49.81 51.32 54.19 55.55 52.86 55.25 55.56 51.09 48.48 43.86 43.60 43.34 41.60 46.00 49.08 49.96 50.09 51.69 48.61 50.22 51.64 55.84 55.28
53.90 53.82 53.86 53.82 53.47 53.79 53.50 53.41 53.76 53.92 53.96 53.77 53.86 53.75 53.47 52.27 51.77 48.13 43.18 42.56 48.14 46.42 40.07 45.84 48.70 49.40 50.12 53.34 51.10 52.86 54.33 50.25 46.67 44.45 41.99 40.31 43.76 48.79 50.42 48.45 47.48 45.68 45.51 45.64 51.11 54.83 55.51
53.49 54.00 54.18 53.99 53.95 53.83 53.70 53.24 53.24 53.59 53.26 53.36 53.43 53.41 52.37 51.36 43.69 45.14 44.25 45.97 46.51 45.77 38.16 43.40 46.65 50.78 52.08 53.36 49.37 56.35 56.01 52.49 46.42 44.92 43.72 42.38 46.63 48.33 48.22 48.77 48.55 43.09 48.91 49.42 51.48 51.45 45.90
54.03 54.21 54.12 53.91 53.83 53.52 53.26 53.24 53.36 53.18 53.03 53.03 52.91 52.69 51.31 50.94 45.10 43.30 45.31 45.73 45.39 45.17 31.87 47.22 48.39 54.12 50.64 48.52 48.44 51.79 55.06 50.81 47.57 45.55 44.04 42.88 44.39 46.19 47.20 48.42 50.10 47.70 50.00 49.37 51.10 48.60 47.68
53.44 53.19 53.02 53.44 53.54 53.25 53.12 52.97 52.97 52.87 52.81 52.56 52.25 51.78 51.12 47.74 45.09 46.53 48.53 45.71 44.38 38.76 32.66 44.49 50.30 47.30 47.46 47.70 48.72 49.64 51.71 51.82 51.41 46.63 43.50 45.92 47.65 47.91 47.81 50.59 52.10 50.54 46.23 44.88 43.78 44.29 40.03
53.03 52.86 52.87 52.76 53.45 53.10 52.79 52.64 52.58 52.73 52.25 51.73 50.85 50.38 49.84 49.11 41.30 44.78 44.53 43.21 36.42 32.42 44.30 43.15 42.95 44.57 44.53 45.42 47.26 46.78 47.13 45.16 43.96 39.89 38.57 42.89 44.54 46.88 49.55 46.10 48.11 45.64 42.10 36.59 36.09 37.71 38.17
53.27 53.53 53.42 53.51 53.68 53.06 52.64 52.60 52.50 52.17 51.73 50.84 49.61 49.41 47.65 48.53 46.53 46.97 41.32 37.52 31.02 40.20 40.66 44.39 44.88 44.29 41.64 44.33 45.05 47.23 44.12 43.83 44.15 42.59 38.95 37.80 37.63 44.98 47.82 46.72 44.94 43.86 43.20 37.48 33.14 34.20 40.11
53.18 53.16 53.35 53.33 53.32 53.01 52.64 52.41 52.18 51.87 51.34 50.28 49.45 43.78 42.68 45.06 48.91 43.75 38.73 30.42 34.19 39.84 45.36 44.38 43.84 39.96 40.60 43.92 44.38 44.65 43.06 43.24 46.30 44.00 40.48 36.95 38.38 45.92 47.78 48.68 48.51 42.69 40.26 43.52 37.55 34.35 36.48
52.60 52.44 52.88 53.16 53.18 52.85 52.43 52.25 52.10 51.73 51.22 50.09 45.01 42.39 40.52 48.68 48.55 40.92 35.32 32.74 36.01 43.82 44.76 42.45 38.58 40.94 37.68 39.90 41.52 41.44 40.75 45.52 45.02 46.69 44.42 41.89 36.52 43.45 47.05 47.89 47.22 46.19 45.93 40.79 36.80 33.27 32.45
52.42 52.06 52.05 52.29 52.91 52.97 52.45 52.41 52.16 51.59 50.63 50.24 39.33 35.06 41.05 48.35 42.99 38.40 31.09 32.72 38.73 42.85 43.71 40.61 40.62 39.77 39.77 39.62 41.49 39.74 41.93 45.84 47.65 46.95 45.10 42.01 39.05 40.48 44.20 44.13 44.13 42.87 40.86 39.47 39.60 37.13 34.67
52.19 52.00 52.10 52.10 52.48 52.62 52.77 52.27 51.71 50.74 49.89 46.48 39.77 30.99 42.83 44.92 38.46 33.75 32.34 35.98 42.24 41.37 43.29 42.45 42.36 41.86 40.73 42.02 39.50 40.91 41.66 44.84 49.00 47.31 42.82 43.11 41.46 39.16 40.80 44.24 46.92 46.74 43.48 42.45 40.83 35.83 35.77
52.46 52.07 52.02 51.52 52.19 51.61 52.46 51.93 51.36 50.40 50.08 45.51 36.85 36.42 43.23 42.33 33.72 34.75 37.95 41.86 43.49 43.46 43.29 43.68 42.11 42.68 43.01 41.38 39.23 41.76 43.42 48.18 49.06 47.26 44.87 43.58 37.38 37.62 37.42 39.86 42.88 42.47 43.14 40.53 39.56 38.60 36.53
51.61 51.90 51.48 51.09 51.27 51.38 51.71 51.66 50.96 50.49 50.25 47.30 38.55 30.94 37.29 38.69 35.65 33.54 33.34 36.21 39.61 47.15 46.08 46.56 45.20 44.92 42.39 41.67 42.86 41.51 44.01 50.25 52.68 52.17 59.28 54.03 38.14 40.54 39.26 41.01 42.62 41.91 44.68 43.64 41.99 37.39 38.05
51.54 51.94 51.33 50.85 51.02 51.21 51.73 51.81 51.01 50.06 50.11 46.98 40.34 33.77 36.90 33.92 35.95 36.16 32.98 36.81 39.72 40.27 44.82 45.55 42.78 44.79 43.72 39.74 42.68 42.03 45.50 47.94 52.28 55.75 50.54 42.17 40.63 40.95 45.36 43.61 44.67 44.62 44.90 44.33 42.50 42.65 42.13
51.58 51.35 50.99 51.01 51.29 51.46 51.19 51.79 51.53 50.00 49.22 43.88 39.93 38.52 38.98 37.14 37.89 33.98 34.83 34.15 39.03 41.06 41.12 41.45 42.07 46.42 45.47 42.79 44.91 43.99 46.45 46.11 47.66 50.76 48.00 42.94 39.59 38.99 43.22 44.75 44.59 44.05 45.35 46.38 45.97 45.21 45.07
51.30 51.14 51.08 51.16 51.29 51.19 51.24 51.54 51.47 50.32 46.63 38.49 38.99 40.12 40.89 38.43 36.83 33.78 33.74 36.42 39.36 41.19 43.15 44.57 44.37 43.47 45.74 47.42 48.14 49.64 49.80 50.33 50.57 48.23 47.55 43.27 38.98 36.79 39.37 41.29 41.31 38.69 44.85 45.01 45.98 46.48 46.71
50.78 51.03 51.03 51.01 51.24 51.06 51.21 51.23 51.14 51.16 48.24 44.90 41.97 41.36 39.19 33.55 38.01 38.12 39.16 40.02 39.27 41.02 39.03 42.49 43.19 41.11 48.46 47.01 48.84 46.48 46.45 49.13 48.68 46.92 49.22 46.95 39.79 37.46 40.73 38.11 33.24 43.95 48.11 48.82 48.42 50.68 50.50
50.71 50.82 50.88 50.92 50.77 50.99 51.08 50.95 50.78 51.01 50.18 45.16 44.02 40.38 39.24 35.11 38.59 38.80 39.58 39.17 39.11 39.93 38.80 42.44 45.20 47.87 44.76 44.73 42.98 42.11 43.21 46.42 48.82 51.39 49.90 48.59 40.55 38.30 36.42 35.40 40.35 47.43 50.24 50.60 50.19 49.10 52.88
50.35 50.29 50.39 50.25 50.41 50.44 50.56 50.63 50.38 50.87 50.40 46.05 40.85 42.83 38.97 34.81 34.79 40.40 38.62 39.64 36.15 35.42 36.68 40.78 47.04 44.93 44.36 42.73 42.02 37.90 39.10 42.60 44.56 47.37 49.71 49.20 47.34 41.84 37.01 36.03 37.34 44.55 51.19 54.40 52.60 45.78 52.45
50.72 50.47 50.40 50.23 50.25 50.12 50.27 50.18 50.17 49.97 50.40 47.05 43.53 46.57 42.89 37.65 39.61 40.46 37.22 36.77 39.09 37.87 35.86 38.19 39.66 41.79 46.90 41.18 38.88 37.85 38.54 44.37 42.73 43.91 44.48 45.48 46.12 43.48 40.42 39.27 42.55 49.98 51.85 54.42 45.63 44.50 51.98
50.73 50.56 50.24 49.95 49.97 49.71 49.77 50.16 50.44 50.27 50.02 47.51 42.52 46.13 43.00 39.15 39.68 42.55 42.74 39.64 39.52 38.62 35.49 39.41 39.43 43.83 44.06 41.39 41.06 40.40 38.92 43.33 44.02 46.67 45.58 45.31 45.18 44.53 43.44 41.31 39.11 51.76 52.26 47.80 51.13 51.82 53.15
50.46 50.27 50.07 49.92 49.82 49.37 49.95 49.93 49.95 49.82 49.77 49.04 42.12 43.30 47.87 41.35 39.96 43.92 44.24 45.53 44.60 44.03 40.08 40.03 36.72 39.25 45.31 41.14 41.93 42.63 42.62 42.91 42.67 43.36 50.38 45.68 48.78 45.35 45.27 43.98 49.71 51.73 49.86 52.15 53.81 53.97 53.84

GFSGBSN_sfc_wetblb_009.txt.gz
Wetbulb
55.70 55.22 55.26 54.98 54.74 54.63 54.77 54.99 55.14 55.16 55.06 55.32 55.46 55.47 55.48 55.54 55.86 56.15 56.45 56.56 56.33 56.51 56.71 57.24 58.05 58.55 56.79 53.16 54.08 58.40 70.72 73.29 69.62 64.47 57.72 56.82 54.99 54.67 52.63 55.68 56.73 56.44 57.26 60.74 63.00 64.32 64.97
55.83 55.14 55.23 55.14 54.75 54.35 54.32 54.53 54.98 54.73 54.70 54.86 55.00 55.29 55.57 55.61 55.92 56.07 56.58 56.67 56.30 55.91 56.51 57.61 58.34 57.67 55.05 49.70 57.91 60.98 68.12 67.86 67.09 61.83 57.92 57.13 55.93 56.94 55.51 57.39 56.82 56.96 58.72 60.38 62.88 63.84 64.51
55.72 55.38 55.14 54.59 54.02 54.36 54.43 54.10 53.97 54.29 54.05 54.35 54.57 54.83 55.52 55.50 55.27 55.72 56.14 55.76 55.51 55.70 56.86 58.42 58.57 57.39 54.38 53.68 58.55 59.42 61.49 63.69 64.66 61.22 56.99 57.57 57.83 57.56 58.29 56.09 57.34 61.83 59.26 61.21 61.53 62.96 62.62
55.42 55.25 54.96 54.75 54.44 54.22 54.17 54.26 53.89 53.74 53.81 54.15 54.43 54.78 54.84 55.01 55.13 55.37 55.53 55.08 54.78 56.32 58.27 59.09 59.11 58.29 53.79 59.67 60.09 60.69 61.62 58.93 60.69 60.03 58.85 59.37 58.09 55.77 55.13 58.25 60.55 59.42 59.98 56.42 60.44 62.44 63.35
55.23 55.04 54.48 54.24 54.69 54.75 54.56 54.28 53.57 53.78 53.83 54.02 54.22 54.51 54.99 55.25 55.25 54.66 54.01 53.96 55.51 57.96 59.18 59.49 57.71 55.65 55.20 64.05 59.59 61.79 61.97 56.57 56.85 59.50 59.00 57.87 57.78 54.79 55.06 55.31 56.93 57.43 55.03 56.10 57.55 62.58 62.31
54.92 54.54 54.38 53.88 53.75 54.16 54.35 54.27 54.04 54.02 54.44 54.46 54.40 54.33 54.39 54.52 54.23 53.52 52.86 53.64 54.84 58.23 59.20 59.67 59.99 54.90 58.51 56.69 58.87 60.47 60.71 56.99 55.16 55.71 55.00 54.11 53.56 51.53 53.21 54.45 49.89 54.14 55.22 56.41 56.91 59.81 61.79
54.49 54.40 54.29 54.39 54.15 54.20 54.02 53.92 53.45 53.48 53.67 53.95 54.09 53.94 53.86 53.64 53.25 52.18 52.25 51.65 52.71 51.89 55.30 55.15 55.10 55.81 56.29 58.41 59.31 59.10 58.50 57.06 54.28 54.33 50.75 52.32 49.32 47.16 50.93 55.41 56.82 57.34 57.34 56.51 58.56 60.73 60.01
54.00 54.13 54.09 54.19 53.73 53.50 53.37 52.95 53.02 53.13 53.09 53.33 53.59 53.47 53.26 52.94 52.26 51.82 50.45 46.49 48.82 48.53 44.75 49.33 49.78 51.81 54.85 56.53 52.83 56.46 59.26 55.62 53.21 50.58 49.38 48.86 46.80 50.94 53.12 54.22 55.20 57.52 56.71 56.79 58.11 60.42 60.21
54.09 54.15 53.98 53.72 53.62 53.74 53.63 53.43 53.33 53.37 53.63 53.68 53.43 53.00 52.65 51.75 51.44 50.55 46.76 47.67 50.95 50.48 44.44 47.73 49.71 50.40 52.15 53.40 51.25 52.83 57.07 55.58 53.22 51.39 48.40 47.06 48.58 51.05 51.90 52.22 51.96 55.81 55.98 56.61 56.39 58.31 59.63
54.09 54.21 54.06 53.94 53.77 53.79 53.60 53.49 53.25 53.08 53.28 53.22 53.16 52.71 52.01 50.18 47.73 47.26 48.71 51.20 50.98 49.66 44.91 47.79 49.86 53.26 54.53 54.27 51.06 55.94 57.00 56.03 51.55 51.27 49.43 48.67 50.19 49.39 50.35 51.74 53.26 51.40 56.93 57.97 57.08 56.05 52.50
54.30 54.15 54.13 53.75 53.73 53.87 53.56 53.20 52.83 52.95 52.73 52.69 52.50 52.13 51.27 50.26 47.38 46.54 49.01 50.60 51.24 49.98 37.40 49.33 51.44 56.81 55.47 53.26 51.90 53.07 58.12 55.92 51.87 50.85 50.13 48.60 47.47 48.55 48.93 51.10 54.12 53.27 56.19 55.61 56.68 55.88 54.50
54.16 53.99 53.60 53.57 53.67 54.07 53.45 52.85 52.54 52.64 52.48 52.38 51.98 51.23 50.92 49.00 47.82 49.28 50.87 50.22 50.63 44.63 37.03 46.62 53.01 51.47 50.81 52.45 52.31 53.98 54.08 56.36 56.24 52.36 49.64 51.31 51.33 50.71 51.41 53.92 54.97 54.17 53.54 53.26 54.86 54.23 48.07
53.90 54.48 53.78 53.69 53.74 53.84 53.35 52.73 52.58 52.50 52.19 51.67 50.49 49.75 49.53 49.29 46.06 49.81 50.31 48.27 42.74 38.65 47.31 45.65 48.03 49.58 49.33 49.51 50.48 51.40 50.80 50.64 50.17 47.51 47.61 50.13 49.86 51.20 51.93 51.47 54.69 53.54 51.83 46.50 45.90 45.99 45.54
53.85 53.92 53.69 53.85 53.55 53.53 53.35 52.91 52.56 52.36 52.01 50.84 49.06 48.83 49.30 49.78 50.44 50.82 47.46 43.47 36.50 42.48 44.62 48.10 48.14 48.36 46.22 48.42 49.77 49.60 49.80 48.76 52.83 51.94 48.87 45.97 43.80 49.53 52.03 50.83 50.93 51.26 51.68 47.79 42.46 43.69 46.44
53.77 53.72 53.54 53.17 52.87 53.20 53.28 52.95 52.48 52.19 51.61 49.99 49.11 47.85 46.17 48.53 50.25 49.33 43.84 36.20 39.31 42.79 47.77 47.53 48.18 45.73 46.01 47.54 47.93 48.99 49.26 49.20 51.53 52.21 47.54 45.71 45.78 49.37 51.02 52.83 53.72 50.73 48.60 53.71 50.02 46.48 46.65
53.35 52.83 53.16 52.96 52.96 53.06 52.93 52.71 52.69 52.11 51.49 49.92 45.93 43.65 43.60 50.98 51.27 46.51 40.64 37.43 40.43 46.30 48.77 46.69 44.03 46.55 43.98 45.42 45.69 46.78 47.33 50.55 50.92 52.57 54.70 49.50 44.88 49.14 50.22 52.26 52.31 51.85 53.28 47.51 48.37 44.41 42.37
53.88 53.59 52.99 52.77 53.12 52.71 52.64 52.64 52.50 51.78 50.90 49.91 44.21 39.22 47.10 51.92 47.99 43.54 37.35 38.05 41.02 45.15 48.14 45.19 44.87 45.20 46.12 44.18 45.66 45.39 46.22 49.15 50.40 51.01 53.57 51.98 48.27 46.54 48.97 48.46 48.07 48.99 48.51 49.15 50.94 48.88 45.83
53.48 53.08 52.73 52.56 52.67 52.29 51.90 52.50 51.83 50.83 49.63 47.03 42.10 35.35 46.96 49.98 43.12 41.80 39.08 40.40 42.68 44.35 45.79 44.64 46.63 46.72 45.39 45.58 44.53 44.68 44.91 48.51 51.15 51.14 48.05 51.32 49.49 45.90 47.14 50.52 51.18 51.47 50.45 51.17 47.36 46.76 47.75
53.06 52.53 52.22 52.63 51.92 51.48 51.82 52.04 51.57 50.40 49.85 46.09 38.23 38.86 47.12 46.66 38.04 40.54 43.13 42.98 45.35 45.64 46.09 46.32 44.68 47.03 47.56 44.87 42.76 45.77 46.95 50.46 51.31 50.46 51.20 49.80 47.36 43.93 45.20 48.94 50.19 48.44 49.97 51.47 51.42 51.63 49.82
52.47 52.34 52.01 52.05 51.58 51.11 51.50 51.87 51.25 50.49 49.89 47.07 39.76 34.60 42.30 44.50 42.12 40.20 39.74 40.87 41.62 47.46 47.20 48.62 47.58 48.93 48.40 47.18 48.93 46.97 46.91 50.49 52.43 51.04 58.38 55.92 51.18 48.67 44.88 47.15 49.57 47.12 48.20 50.05 49.72 47.08 48.03
52.17 52.19 52.02 51.87 51.38 51.13 51.44 51.75 51.48 50.60 49.75 46.55 40.56 37.88 40.69 38.82 41.12 41.57 40.08 39.80 39.63 40.53 46.91 47.86 48.11 48.33 47.61 45.30 46.53 46.53 49.11 50.05 51.64 55.76 56.45 54.85 48.71 49.86 51.04 52.43 50.32 49.13 47.52 48.76 48.41 50.35 48.34
51.48 51.67 51.52 51.37 51.27 51.16 51.43 51.81 51.43 50.57 48.62 44.28 38.54 39.17 39.79 38.71 40.20 39.68 39.50 39.23 39.90 41.99 43.19 43.89 44.84 47.25 48.19 46.29 47.65 46.39 49.55 50.12 50.78 54.47 55.09 51.19 50.54 47.89 46.85 50.45 50.09 47.82 49.35 49.17 49.70 50.03 50.66
51.08 50.97 51.10 51.23 51.23 51.46 51.45 51.27 51.31 50.34 47.73 42.55 43.12 43.13 39.09 36.97 37.90 37.49 38.65 39.49 40.17 41.71 44.06 45.73 44.95 43.76 44.07 47.34 50.12 51.74 52.79 53.79 54.45 53.11 54.09 54.78 50.53 49.74 46.57 48.63 48.09 45.11 49.06 49.65 50.65 52.01 51.58
50.69 50.80 50.85 50.87 50.81 50.83 50.84 51.03 51.08 50.59 49.27 47.59 43.01 41.49 36.93 32.61 36.16 37.41 39.77 40.67 40.02 41.36 39.88 42.91 44.60 42.54 47.05 50.29 51.74 53.24 50.88 51.97 53.20 54.14 54.94 53.99 52.06 47.95 47.14 47.09 39.70 48.53 52.95 52.60 51.42 52.39 53.84
50.82 50.89 50.97 50.80 50.80 50.65 50.65 50.66 50.76 50.40 50.11 47.56 45.43 42.93 38.32 31.77 36.38 36.33 38.41 39.99 41.49 42.68 40.77 41.36 44.62 47.24 49.62 47.55 47.28 47.88 49.44 50.52 51.15 53.52 53.83 56.41 50.79 45.47 44.22 44.81 48.60 49.94 53.03 50.72 49.70 50.40 54.92
50.98 50.63 50.74 51.04 50.72 50.40 50.57 50.47 50.45 50.46 50.45 49.13 46.58 45.80 41.42 33.47 32.98 37.44 37.92 39.62 37.54 38.75 39.91 41.63 46.23 48.30 49.69 48.69 48.20 44.28 43.01 46.94 47.84 50.00 53.98 53.90 53.95 49.70 47.57 42.92 41.39 51.04 54.58 56.72 56.44 49.31 57.78
50.52 50.38 50.59 51.00 50.81 50.40 50.46 50.35 50.40 50.10 50.40 48.40 47.87 47.09 43.26 36.37 38.49 39.38 36.09 37.27 41.72 40.58 38.48 40.83 41.49 43.74 50.41 48.60 45.69 45.15 44.98 49.87 46.01 47.29 48.84 49.71 49.14 47.36 47.99 45.72 48.57 53.10 54.55 56.78 49.12 52.81 57.70
49.97 50.55 50.66 50.49 50.28 50.10 50.12 49.89 49.97 49.80 50.03 48.36 46.33 47.58 43.82 38.84 39.35 40.91 41.35 38.55 40.80 40.88 36.71 40.14 39.89 44.18 46.90 46.57 46.95 46.82 45.58 49.40 49.29 51.79 50.09 48.67 46.92 45.67 48.23 46.21 44.74 53.98 54.86 53.04 56.15 58.23 58.89
50.32 50.35 50.22 50.11 50.01 50.23 50.08 49.50 49.05 49.12 49.27 49.35 44.40 47.39 47.99 42.06 39.74 44.55 44.30 45.26 44.57 44.13 41.46 41.80 40.12 40.16 43.98 44.10 47.16 47.36 48.37 50.23 49.18 46.04 53.48 47.37 50.37 48.06 49.34 48.92 53.41 54.25 53.48 56.90 60.09 58.78 59.64

GFSGBSN_sfc_wetblb_012.txt.gz
Wetbulb
56.28 55.48 55.49 55.44 54.66 54.91 54.84 54.83 54.87 54.84 54.66 54.97 55.15 55.22 55.49 55.65 56.07 56.36 56.55 57.12 56.89 56.53 56.95 57.48 58.07 58.79 60.09 57.54 56.31 64.24 70.42 72.09 69.45 68.62 60.37 59.71 56.87 57.57 54.50 57.06 58.04 57.75 58.91 59.92 61.66 63.65 65.44
55.98 55.80 55.43 55.17 54.94 54.64 54.59 54.45 54.67 54.54 54.67 54.66 54.94 55.22 55.66 55.74 56.05 56.24 56.65 56.50 56.39 55.94 56.33 57.40 58.45 58.68 59.42 52.28 60.30 63.22 66.77 68.46 65.69 64.42 59.88 59.03 56.91 58.05 56.56 57.04 57.75 59.41 59.31 59.96 61.62 63.98 65.81
55.85 55.60 55.17 54.81 54.56 54.66 54.50 54.35 54.26 54.09 54.36 54.77 54.64 54.62 55.33 55.49 55.30 56.09 56.27 55.89 55.13 55.36 56.39 57.85 59.14 59.68 57.85 55.46 60.77 62.26 63.09 63.32 65.20 63.84 59.46 59.55 59.43 57.23 57.77 57.07 59.90 60.02 59.12 61.95 62.87 65.21 64.70
55.45 55.22 54.63 54.85 54.64 54.68 54.14 54.28 54.08 53.85 54.01 54.10 54.22 54.31 54.12 54.22 54.57 55.15 55.30 54.64 54.46 56.32 57.68 59.50 60.01 61.24 56.13 61.86 63.72 61.68 62.97 62.52 64.09 65.75 62.03 61.55 60.27 58.05 57.50 60.61 59.19 59.06 59.79 57.62 62.89 64.69 65.25
55.30 55.08 54.98 54.61 54.94 55.03 54.53 54.06 53.72 53.91 54.33 54.17 54.11 53.98 54.39 54.67 54.73 54.46 53.70 53.78 55.60 58.83 59.32 60.10 61.46 61.06 55.73 63.74 61.72 63.96 64.60 60.50 61.47 61.69 61.23 60.30 59.17 57.24 57.36 56.13 56.58 58.41 55.23 56.91 60.32 64.72 64.17
54.65 54.27 54.47 54.81 54.40 54.64 54.58 54.22 54.01 53.90 54.19 54.24 54.28 54.32 54.12 54.07 53.72 53.07 52.59 53.95 57.49 59.73 61.04 62.57 62.60 58.52 60.34 57.00 62.38 61.58 64.77 60.88 59.49 59.57 57.70 56.87 56.22 54.38 55.10 54.87 51.72 54.66 55.23 57.06 57.60 62.56 63.86
54.35 54.33 54.45 54.24 54.24 54.25 54.20 54.13 53.62 53.56 53.45 53.96 54.18 53.83 53.54 53.21 52.67 52.05 53.21 56.48 57.06 57.47 60.29 57.30 57.44 58.02 57.58 60.48 61.37 60.61 62.58 59.21 58.85 57.26 52.33 54.20 51.61 50.17 53.90 56.37 57.25 57.42 57.05 56.73 59.02 63.32 62.40
54.55 54.43 54.14 54.02 53.78 53.71 53.95 53.81 53.78 53.51 53.01 53.48 53.74 53.46 53.10 52.55 51.84 51.53 53.85 51.13 51.62 51.01 48.55 53.65 53.71 54.45 57.57 58.78 54.29 57.43 62.09 57.00 55.91 52.81 53.77 51.79 49.17 53.31 55.20 55.97 56.05 56.80 56.15 56.48 59.55 62.82 62.37
54.54 54.22 53.97 53.86 53.85 53.99 54.37 54.36 53.71 53.23 53.46 53.52 53.35 52.94 52.53 51.87 51.31 54.45 52.41 53.41 54.51 53.68 48.63 51.77 53.45 52.95 54.31 55.59 53.77 55.00 59.37 58.02 54.47 52.82 52.24 50.33 51.22 53.75 53.42 53.45 54.47 56.56 55.76 56.52 58.14 61.31 62.58
54.47 54.69 54.62 54.40 54.23 54.17 54.36 54.16 53.75 53.11 53.17 53.19 53.13 52.73 51.86 50.81 51.52 52.25 53.12 55.53 55.75 54.16 47.45 50.86 52.13 55.15 56.43 56.45 53.02 57.93 58.60 57.56 55.23 52.23 52.80 51.26 53.48 51.70 51.50 51.67 55.06 53.89 57.55 57.67 58.14 58.28 54.98
55.00 54.81 54.83 54.76 54.51 54.20 54.16 53.87 53.58 53.15 53.04 52.92 52.79 52.30 51.03 49.98 50.55 50.68 52.61 54.06 54.92 53.91 41.12 51.90 53.53 59.66 58.31 55.66 55.25 55.36 58.76 57.43 53.57 53.03 53.75 51.00 50.66 50.33 49.94 51.45 54.57 54.68 58.21 57.74 57.65 57.66 57.27
54.90 54.77 54.57 54.40 54.05 54.04 53.91 53.64 53.50 53.15 52.79 52.75 52.42 51.51 50.59 52.11 52.99 53.04 54.36 54.47 54.95 46.99 40.61 49.16 54.17 53.51 53.77 55.30 54.52 55.46 55.23 57.89 57.60 53.98 54.38 53.24 54.75 52.59 51.96 53.17 54.80 57.05 56.69 57.44 57.61 56.33 51.95
54.80 54.79 54.08 53.97 53.65 53.58 53.56 53.39 53.23 52.90 52.71 52.15 51.05 49.56 49.81 52.05 49.99 54.05 54.45 50.33 44.91 41.84 49.63 48.22 49.95 53.44 52.10 51.45 52.98 53.83 52.51 51.93 51.77 49.59 49.65 51.70 51.61 52.71 53.06 51.39 53.96 55.50 54.81 50.35 49.39 49.66 49.51
55.06 54.81 54.39 53.90 53.56 53.50 53.31 53.46 53.02 52.73 52.80 51.58 49.43 48.31 52.32 52.59 55.09 53.86 51.23 44.94 40.24 45.31 46.88 50.87 51.06 52.06 49.95 51.30 51.70 52.24 51.16 49.79 53.34 53.05 50.86 48.06 45.73 51.47 52.83 51.83 51.94 53.16 54.49 50.62 45.99 47.20 49.75
55.51 54.80 54.43 54.12 53.50 53.37 53.39 53.08 52.65 52.59 52.03 50.75 48.77 51.19 50.80 54.48 54.36 53.43 47.58 39.75 42.52 45.68 48.87 47.91 49.85 49.07 49.89 51.00 50.25 51.85 51.61 50.44 52.00 54.06 50.23 49.43 48.48 53.47 53.00 53.51 54.09 52.87 52.18 56.50 52.75 53.56 50.49
55.28 54.55 54.55 54.03 53.74 53.35 53.15 52.55 52.38 52.48 51.57 49.82 48.32 48.54 49.11 53.93 55.97 51.54 43.92 39.99 44.83 47.07 48.65 50.42 46.57 49.36 47.43 49.33 48.95 50.38 50.91 52.96 52.09 54.87 56.59 53.29 48.54 52.94 52.80 53.76 53.96 54.06 56.37 51.30 52.91 48.00 46.32
54.11 54.10 53.56 53.38 53.17 53.06 52.75 52.59 52.32 52.20 51.09 49.68 48.44 43.95 52.41 57.21 55.09 48.30 40.70 42.34 44.91 47.36 48.13 47.91 47.24 48.11 48.90 48.69 49.58 49.58 49.89 52.21 53.88 54.08 56.43 55.13 51.74 50.35 52.57 50.17 50.00 51.35 51.79 53.66 54.16 52.41 48.24
53.74 53.71 53.75 53.27 53.06 52.96 52.47 52.59 51.98 51.51 49.75 48.98 46.15 40.41 52.48 54.85 45.84 46.39 43.60 45.86 44.92 45.52 47.36 47.12 48.46 48.44 48.64 49.42 48.81 49.08 48.98 51.10 53.91 55.35 53.32 55.93 53.18 48.69 48.44 52.44 53.41 53.61 52.76 54.24 50.03 50.48 52.28
53.19 53.13 52.84 52.96 52.98 52.43 52.24 52.07 51.74 51.04 50.04 48.35 43.41 43.48 52.41 51.19 39.55 42.14 46.12 45.17 46.60 45.84 45.70 45.67 45.42 47.50 49.05 47.96 47.07 48.88 49.62 52.09 52.22 52.76 53.73 55.74 52.15 47.98 48.75 50.49 52.01 50.27 52.17 53.54 54.00 54.42 53.03
52.49 52.59 52.70 52.45 52.26 52.15 52.07 51.94 51.28 50.84 50.36 48.61 43.60 39.09 45.08 48.78 47.08 43.29 43.19 43.83 43.95 47.69 47.14 47.74 47.21 47.99 46.44 46.55 49.53 47.73 48.73 50.82 52.57 52.39 59.89 56.78 52.58 50.34 47.07 49.68 51.71 49.41 49.75 51.57 51.97 50.36 51.19
51.66 51.85 51.68 51.93 52.11 51.98 51.84 51.96 51.32 50.82 50.37 47.74 44.25 41.27 44.53 39.33 43.78 44.60 44.94 44.52 42.14 43.20 47.48 49.55 47.19 47.88 46.91 45.37 46.85 47.12 49.44 51.12 53.24 57.72 55.83 53.18 51.79 53.56 52.50 52.60 52.50 51.35 50.43 50.12 49.69 51.14 50.18
51.40 51.40 51.49 51.36 51.46 51.46 51.48 51.71 51.49 50.56 49.61 45.74 40.22 41.39 44.02 41.08 41.95 40.89 40.52 40.43 41.74 43.40 45.74 45.55 46.85 47.22 48.06 46.99 48.27 47.53 49.51 50.56 50.21 52.92 53.25 55.61 52.70 54.50 52.11 53.33 53.18 51.48 52.64 51.86 50.76 50.72 51.27
51.50 51.38 51.19 51.26 51.09 51.11 51.11 51.27 51.19 50.31 48.48 44.58 46.24 45.77 40.92 39.04 37.85 37.89 39.35 41.34 40.81 43.98 45.79 46.80 46.96 46.87 46.86 49.76 52.42 53.99 54.53 54.75 54.82 52.92 53.40 54.17 53.29 53.15 49.43 52.56 52.68 49.37 52.70 53.57 53.40 52.53 51.60
51.44 51.59 51.33 51.42 51.27 51.15 51.02 50.81 50.85 50.81 49.60 47.59 46.12 44.97 37.26 35.35 38.57 37.19 39.27 40.57 40.43 41.19 40.85 44.23 46.02 44.55 48.97 52.24 52.21 53.19 53.84 54.17 54.38 55.06 56.65 55.19 55.02 54.17 50.70 52.46 44.91 53.00 56.48 56.22 54.60 54.24 53.66
50.70 51.10 51.37 51.48 51.48 51.19 51.08 50.76 50.74 50.77 49.80 47.57 47.93 42.92 38.83 33.73 38.16 37.77 38.04 38.55 41.74 42.07 42.19 42.15 44.42 48.21 50.81 48.03 46.17 46.85 48.69 50.86 51.70 53.80 54.66 56.96 55.18 52.12 48.96 47.77 51.71 53.35 56.65 55.21 53.79 52.67 55.54
50.91 50.70 50.62 50.89 51.02 51.31 51.12 50.83 50.58 50.59 50.44 48.88 47.93 48.00 41.79 36.69 37.05 40.57 38.46 39.34 38.83 39.62 41.00 42.74 47.04 49.89 48.69 45.48 46.22 43.26 42.92 47.08 46.94 50.67 56.40 56.85 57.13 53.33 51.25 46.76 45.00 53.78 56.52 58.92 58.91 51.94 57.14
50.68 50.75 50.49 50.53 50.93 50.93 50.78 50.52 50.52 50.19 50.43 49.02 48.11 49.88 44.34 36.75 41.42 42.19 39.00 38.63 42.87 42.03 41.36 43.14 41.90 43.64 50.16 47.19 44.38 44.72 45.01 50.42 46.28 48.30 50.72 52.84 53.68 50.46 50.76 48.97 51.55 55.92 56.66 59.78 50.55 52.75 60.85
50.14 50.49 50.92 50.77 50.60 50.59 50.64 50.47 50.38 49.94 48.96 49.08 47.07 49.23 44.13 39.27 39.93 43.35 44.34 40.68 39.47 39.43 39.26 43.05 41.15 44.51 45.10 45.40 45.64 46.89 47.39 49.67 49.50 52.93 52.44 51.49 50.60 49.92 51.42 49.24 47.31 56.40 56.88 53.87 58.18 62.60 62.73
49.84 49.72 50.30 50.44 50.15 50.53 50.42 50.21 49.77 49.36 48.78 48.65 44.39 50.68 50.77 42.67 40.43 46.76 47.68 48.29 46.83 45.60 42.58 42.94 41.95 42.54 43.68 44.30 47.90 49.74 49.81 52.67 50.77 46.81 56.57 50.83 54.10 52.15 53.26 53.12 56.31 57.61 54.89 58.12 61.44 62.83 63.49

GFSGBSN_sfc_wetblb_015.txt.gz
Wetbulb
56.45 56.19 55.69 55.93 55.43 55.54 55.21 55.31 55.14 54.99 54.93 55.20 55.40 55.43 55.36 55.49 55.74 56.15 56.55 57.04 56.79 56.75 56.69 57.18 58.01 58.78 60.98 58.32 57.57 67.55 73.16 73.16 71.08 67.31 64.89 62.13 61.14 60.87 59.96 59.06 60.05 59.29 61.18 61.18 61.67 63.52 63.98
56.05 55.85 55.39 55.59 55.38 55.28 54.95 54.91 54.83 54.65 54.69 54.91 54.88 55.16 55.58 55.60 55.45 55.85 56.25 56.35 56.22 55.53 56.30 57.24 58.05 58.60 59.85 53.57 61.60 66.10 64.05 67.34 66.56 65.48 62.32 61.84 61.11 61.31 60.12 59.24 59.07 61.10 60.60 60.69 61.76 62.80 64.18
55.74 55.47 55.19 55.48 54.99 54.97 54.81 54.49 54.45 54.43 54.34 54.51 54.81 55.05 55.43 55.35 54.95 55.20 55.49 55.45 54.76 55.26 56.55 58.07 58.79 60.31 58.21 57.36 61.49 62.34 65.44 64.53 65.25 64.13 61.97 61.31 61.96 58.94 59.32 57.92 60.71 60.92 58.71 61.48 61.25 62.67 62.98
55.43 55.06 55.03 55.36 55.26 54.83 54.74 54.36 54.29 54.24 54.11 54.19 54.33 54.82 54.95 54.89 54.58 54.73 54.62 54.40 54.26 56.16 58.85 59.24 59.98 61.76 56.88 62.91 64.42 62.10 62.33 61.59 63.73 64.63 63.34 62.44 61.24 59.48 58.76 60.81 59.88 58.31 59.35 57.29 60.93 62.30 63.82
55.28 55.14 55.02 54.97 54.90 54.92 54.92 54.33 54.05 54.37 54.50 54.44 54.44 54.44 54.44 54.70 54.39 54.06 53.29 53.39 54.91 59.10 60.13 60.50 62.68 62.05 57.14 64.64 61.03 62.08 62.10 60.40 62.09 62.66 63.91 62.31 60.82 57.27 57.82 55.49 55.65 58.04 54.64 56.58 58.41 62.61 63.76
55.58 55.58 55.04 54.50 54.69 54.99 54.95 54.93 54.79 54.66 54.23 54.33 54.26 54.24 54.18 53.81 53.46 52.85 52.36 53.39 58.03 59.59 61.60 64.21 64.08 60.02 60.41 59.13 61.96 63.04 64.21 62.76 59.96 60.55 59.33 58.72 57.19 54.74 54.94 54.98 51.08 54.95 55.54 57.17 58.73 60.74 63.30
55.36 54.93 54.83 54.62 54.54 54.76 54.89 54.81 54.92 54.64 54.21 54.19 54.16 53.95 53.64 53.25 52.71 51.79 53.63 59.25 58.64 59.62 62.08 59.28 59.69 58.18 59.03 61.12 63.71 60.95 63.15 60.99 59.77 58.72 53.87 55.77 52.23 50.65 53.75 56.52 57.28 57.84 57.52 55.94 59.44 61.35 61.33
55.56 55.07 54.57 54.52 54.60 54.79 54.69 54.96 54.84 54.57 54.11 54.18 54.05 53.76 53.44 52.61 52.00 51.33 54.62 54.45 54.34 53.34 49.64 55.18 55.97 56.99 59.69 61.02 57.38 59.58 63.05 56.63 56.07 53.89 55.25 53.07 50.45 54.05 56.22 57.04 56.67 56.90 56.75 56.92 59.48 60.27 61.30
55.18 54.87 54.74 54.97 54.93 55.19 54.86 54.75 54.40 54.16 53.79 53.62 53.74 53.52 52.83 51.86 51.02 55.96 53.95 55.80 56.65 56.17 50.17 52.83 55.90 55.42 56.37 57.56 55.06 56.64 59.87 58.70 54.50 53.67 53.51 51.37 52.45 54.78 54.85 55.61 55.56 56.34 55.95 56.85 57.20 61.35 62.24
55.52 55.26 55.29 55.42 55.36 54.94 54.75 54.42 54.20 53.99 53.74 53.64 53.60 53.31 52.29 50.73 51.73 53.81 54.30 56.95 56.47 55.95 47.85 51.33 53.21 55.19 56.63 57.09 53.70 58.20 59.66 58.72 56.10 52.89 53.90 53.09 54.93 53.04 52.96 53.33 55.65 54.01 57.82 57.70 57.54 56.78 55.55
55.51 55.69 55.46 55.32 54.97 54.66 54.22 53.95 54.01 53.76 53.48 53.45 53.54 52.79 51.53 49.90 51.56 52.31 54.03 55.89 55.83 55.23 41.69 54.07 54.65 60.16 58.72 55.65 57.74 57.01 59.88 57.77 54.80 54.33 54.25 52.35 52.66 52.45 51.46 52.98 55.92 54.81 58.49 57.89 57.71 57.76 58.10
55.91 55.73 55.69 55.15 54.87 54.43 54.08 53.76 53.70 53.45 53.37 53.12 53.02 52.00 51.11 52.59 54.62 56.02 56.50 55.71 54.66 46.96 42.35 51.45 55.53 54.49 55.09 56.28 56.51 57.44 56.69 58.46 58.29 55.34 55.42 54.12 56.65 54.43 53.82 54.63 56.06 57.07 56.73 57.71 57.46 56.37 52.03
56.07 55.95 55.66 55.33 54.86 54.24 53.76 53.58 53.72 53.02 52.92 52.61 51.66 50.37 50.29 52.81 50.80 56.29 55.26 52.13 44.78 42.34 52.09 50.65 51.93 54.24 53.90 53.40 54.08 54.84 53.59 53.03 51.69 49.88 51.03 53.23 53.33 55.36 54.96 52.36 54.75 55.19 53.86 50.27 50.02 49.89 49.62
55.93 55.80 55.75 55.28 54.77 54.50 54.03 53.80 53.62 52.96 52.67 52.16 50.18 48.62 52.91 54.86 57.03 56.51 52.87 46.29 40.64 47.81 49.08 52.98 53.02 53.87 51.66 53.68 53.70 54.00 53.07 51.32 53.96 53.90 52.00 49.89 47.94 53.41 54.63 52.87 51.61 52.68 53.26 50.11 46.65 48.29 50.62
55.78 55.69 55.53 55.28 54.79 54.52 54.27 53.74 53.33 52.77 52.36 51.38 49.42 53.57 53.31 55.23 56.81 55.12 49.49 40.53 43.39 47.74 51.65 51.01 52.13 50.53 51.34 52.80 52.79 53.11 53.07 52.11 53.40 54.34 51.28 51.02 50.38 55.32 54.86 54.67 53.45 51.98 50.77 55.68 52.67 54.33 51.60
55.21 54.76 54.72 54.71 54.44 54.11 53.78 53.49 53.00 52.81 52.24 50.89 49.88 51.50 52.16 55.97 57.06 53.24 45.74 41.51 46.51 49.74 51.38 51.21 48.52 51.14 49.73 51.42 50.96 51.76 52.53 54.51 53.12 54.91 56.63 54.19 50.68 54.53 54.48 55.09 54.29 52.40 54.96 50.89 53.95 49.21 48.45
53.89 54.21 54.18 54.18 54.15 53.93 53.66 53.58 53.00 52.48 51.73 50.80 50.25 47.03 54.68 57.63 56.89 50.14 42.41 44.10 46.57 49.28 50.09 48.78 48.65 49.62 50.78 50.87 52.29 51.43 51.36 53.91 55.19 54.73 55.64 54.53 53.44 52.82 55.03 52.46 51.14 50.88 50.67 53.48 53.96 53.37 49.30
53.70 53.71 53.54 53.85 53.85 53.66 53.36 53.33 52.71 51.83 50.56 49.61 49.18 44.26 54.30 56.55 46.46 47.73 44.62 47.34 47.44 48.57 50.72 48.81 49.23 50.29 50.82 51.43 50.84 51.53 51.04 53.19 55.98 55.90 52.89 55.43 53.61 50.89 51.99 55.40 55.50 53.82 51.87 52.44 51.50 51.72 52.92
53.07 52.86 52.89 53.27 53.43 53.11 53.13 53.10 52.28 51.21 50.95 49.75 45.93 47.57 53.71 51.50 40.52 42.58 46.21 46.83 48.66 47.98 48.75 48.21 47.31 48.53 50.81 50.26 49.51 51.45 52.22 54.99 54.89 55.00 54.68 55.63 52.26 49.31 50.84 52.72 54.27 52.06 52.65 52.92 53.13 54.84 54.40
52.37 52.21 52.29 52.52 52.54 52.24 52.49 52.57 51.91 51.23 51.28 48.79 45.63 42.08 47.55 48.83 48.28 44.04 43.12 44.19 45.12 49.57 48.29 49.11 48.33 49.16 47.66 47.86 50.92 50.32 51.39 53.62 54.83 54.08 60.78 59.00 54.21 51.75 49.09 51.32 52.96 50.62 50.90 52.17 52.15 50.33 51.97
52.43 52.37 52.20 52.16 52.14 52.00 51.91 52.11 51.78 51.12 50.94 48.02 44.95 43.19 45.95 41.33 44.15 43.54 43.78 45.10 42.44 42.70 48.51 49.68 47.87 47.50 46.94 45.22 47.33 48.02 50.53 52.42 53.53 57.19 55.04 54.71 51.69 53.73 53.62 54.12 53.97 51.91 50.41 50.74 50.48 52.34 51.19
52.20 52.28 52.20 52.10 51.97 51.89 51.71 52.30 51.61 50.88 50.20 44.67 42.15 42.56 45.53 43.36 44.85 42.38 41.82 42.16 39.97 41.92 43.71 43.02 44.43 47.37 48.19 46.28 47.21 46.57 49.42 51.62 51.62 53.53 53.39 54.88 51.44 53.74 51.82 53.55 53.01 51.54 52.99 52.13 51.60 51.39 51.85
51.82 51.72 51.97 52.18 52.01 52.05 51.93 51.54 51.56 50.82 48.69 44.08 48.46 47.65 44.28 40.58 41.75 40.55 39.80 40.46 40.90 43.64 44.09 46.17 44.66 44.16 46.47 48.14 50.68 52.19 54.07 53.35 53.03 53.55 53.49 53.67 52.97 51.48 49.18 53.40 53.19 49.64 52.57 53.24 53.90 54.16 53.11
51.14 51.40 51.55 51.81 51.74 51.92 51.84 51.61 51.42 51.23 49.88 48.55 45.16 44.53 40.36 37.36 39.65 39.44 40.52 39.59 39.96 41.37 41.74 43.70 43.85 42.43 47.98 51.06 52.41 53.31 53.63 54.58 54.44 53.67 54.33 52.94 53.66 52.61 50.02 52.42 44.98 54.09 57.69 55.92 54.32 55.16 56.42
50.97 50.93 51.16 51.67 51.53 51.47 51.55 51.59 51.58 51.33 50.74 51.11 48.52 43.09 39.48 37.25 38.71 40.49 40.68 39.59 41.06 43.29 43.18 42.16 43.38 46.41 48.24 48.03 46.16 46.19 47.80 48.31 50.19 52.49 54.86 56.06 53.75 50.51 48.71 48.73 52.40 54.32 56.03 56.86 56.17 56.31 58.08
50.93 50.78 50.97 51.27 51.33 51.30 51.36 51.44 51.32 51.06 51.00 50.65 51.27 47.92 41.97 36.45 38.16 41.26 39.62 40.10 37.44 38.86 41.52 43.95 46.92 49.16 47.94 45.24 42.41 39.63 40.34 45.01 45.08 47.53 53.55 55.50 56.93 53.37 51.54 47.30 46.12 53.98 58.79 60.70 59.82 52.69 58.87
50.74 50.70 50.85 50.97 51.33 51.61 51.59 51.41 51.13 50.83 50.63 51.25 48.36 49.09 43.82 35.91 40.63 42.73 39.50 38.00 41.79 40.62 40.64 41.42 45.50 44.19 46.61 41.06 39.99 40.03 41.15 47.18 43.31 44.87 47.43 49.57 51.62 49.26 50.26 49.39 52.03 58.10 59.01 60.40 51.64 54.07 63.29
50.56 50.45 50.47 50.40 51.08 51.25 51.04 51.09 51.14 50.80 50.62 50.16 49.07 51.92 45.45 39.78 40.17 44.58 45.40 42.17 41.96 41.96 38.70 41.71 44.03 44.34 44.27 41.53 41.89 42.97 42.88 46.24 46.65 50.52 50.79 49.07 49.69 49.30 51.13 48.51 46.18 59.87 59.70 55.63 59.91 63.42 64.09
50.80 50.79 50.56 50.23 51.00 50.62 50.87 50.80 50.72 50.29 50.06 49.72 44.92 50.11 49.04 41.88 42.11 48.37 48.70 49.29 47.18 47.40 44.44 44.60 43.18 41.74 46.00 44.25 46.04 45.42 45.20 49.52 49.15 44.70 54.46 49.81 53.46 51.48 52.92 52.47 60.20 61.10 60.80 62.21 63.00 64.06 64.64

GFSGBSN_sfc_wetblb_021.txt.gz
Wetbulb
56.25 56.12 56.32 56.26 56.49 56.42 55.82 55.51 55.66 55.98 55.52 55.28 55.13 55.46 55.43 55.25 55.42 55.87 56.11 56.54 56.62 56.41 55.90 56.45 57.27 58.20 56.27 52.64 53.65 62.00 73.61 74.66 69.93 64.47 59.70 57.13 54.27 54.67 53.79 56.83 58.44 58.23 60.10 61.73 62.27 62.91 61.73
56.26 56.11 55.88 55.49 55.81 55.82 55.27 55.21 55.30 55.31 55.41 55.10 55.33 55.58 55.69 55.79 55.99 56.24 56.30 55.90 55.86 55.73 55.54 56.59 57.75 58.35 54.48 46.19 56.19 58.67 66.77 67.20 64.56 61.55 58.50 57.76 56.73 57.80 56.80 57.02 56.40 59.56 59.53 58.29 60.51 61.50 61.87
56.91 56.14 55.72 55.76 55.76 55.68 55.36 54.95 55.08 55.01 55.14 55.14 55.55 55.61 55.49 55.65 55.60 55.50 55.83 55.46 55.45 54.80 55.58 56.77 58.52 57.88 53.71 49.91 57.57 62.49 62.27 62.68 62.22 60.75 57.42 59.17 59.60 57.24 56.79 55.83 59.09 58.14 55.46 56.82 57.27 57.03 59.98
57.30 56.87 56.29 56.40 56.24 56.03 55.72 55.12 54.92 55.11 55.26 55.48 55.44 55.47 55.32 55.46 55.63 55.42 54.86 54.55 54.71 55.02 56.08 57.67 60.33 56.63 50.23 57.27 57.87 56.40 56.73 57.64 61.09 59.56 60.37 59.49 59.35 56.90 55.06 57.09 56.71 53.85 51.85 47.83 55.13 58.04 59.86
56.93 56.72 56.67 56.67 56.34 56.03 55.87 55.79 55.71 55.40 55.19 55.00 54.98 54.88 54.80 54.80 54.78 54.39 53.58 53.64 55.27 57.09 57.61 60.54 56.61 54.80 52.50 64.09 56.91 57.18 58.00 56.75 59.14 59.56 60.53 62.01 57.90 54.06 53.47 50.60 48.14 49.01 45.99 48.46 51.89 57.86 58.78
57.06 57.01 56.53 56.21 56.05 55.99 55.87 55.54 55.40 55.09 54.86 54.74 54.74 54.45 54.24 54.20 53.89 53.29 52.69 53.23 55.57 57.85 59.34 61.25 60.70 53.71 58.75 56.72 58.53 59.27 59.59 59.09 56.57 56.23 55.67 56.16 53.17 50.03 49.57 46.79 42.92 44.76 46.20 49.23 50.42 56.18 58.77
57.30 57.15 56.61 56.36 56.33 55.98 55.77 55.36 55.30 54.99 54.78 54.60 54.41 54.16 53.95 53.77 53.27 52.42 50.29 48.70 51.28 50.68 56.38 55.45 54.69 55.75 55.28 59.07 61.25 59.05 59.47 57.43 55.25 52.63 48.99 52.09 48.11 46.93 48.02 49.12 50.54 50.65 49.59 49.71 53.08 58.36 57.96
57.34 57.22 57.04 56.65 56.49 56.20 55.99 55.46 55.25 54.96 54.74 54.48 54.35 53.79 53.76 53.39 52.61 51.69 50.13 49.56 50.80 51.10 45.60 51.19 52.68 55.41 58.89 60.68 57.39 58.47 59.53 52.95 51.79 48.06 51.31 48.77 46.97 50.98 52.81 52.01 50.48 50.38 49.15 49.41 53.35 58.60 58.23
57.30 57.07 56.82 56.49 56.40 56.28 56.11 55.45 54.98 54.71 54.32 54.16 54.20 53.70 53.14 52.65 51.60 51.91 48.50 49.29 53.68 52.08 43.86 47.13 50.10 50.05 51.06 54.30 54.84 56.31 57.01 54.41 51.17 49.84 50.69 47.27 49.81 54.27 52.25 50.85 50.17 49.43 48.32 49.45 50.61 56.87 58.60
56.91 56.61 56.42 56.48 56.20 56.09 55.97 55.66 55.28 54.81 54.50 54.13 54.13 53.52 52.67 51.76 50.18 48.08 48.96 55.06 55.01 52.63 39.10 44.98 48.17 50.48 51.62 52.17 51.89 59.56 59.57 55.85 53.46 49.84 50.85 49.34 52.84 52.16 50.54 49.11 50.06 46.78 52.45 52.63 52.25 51.89 49.39
56.61 56.40 56.48 56.26 56.03 55.93 55.78 55.50 55.23 54.79 54.17 54.03 53.78 53.17 52.17 51.38 46.68 46.58 52.40 54.29 54.32 50.19 32.77 51.39 51.10 55.44 51.80 48.97 52.64 55.47 59.87 56.02 51.93 51.42 49.40 48.07 50.64 50.01 48.85 48.85 50.25 49.11 53.45 52.54 52.57 50.54 52.68
56.55 56.32 56.22 56.18 56.19 55.74 55.52 55.15 54.82 54.31 53.95 53.93 53.43 52.48 51.66 49.28 48.64 50.43 52.92 52.78 50.67 38.82 34.40 48.14 52.49 49.87 48.26 49.13 50.55 52.84 55.23 55.23 54.68 52.53 52.21 49.95 53.22 52.12 51.26 52.20 51.34 52.04 51.14 51.29 51.40 49.93 45.62
56.03 55.86 55.85 55.75 55.44 55.09 54.44 54.38 54.42 53.89 53.58 53.21 52.43 50.88 49.51 50.34 45.33 52.46 51.64 49.39 37.16 34.75 49.48 48.86 48.64 50.69 48.86 47.51 48.47 49.09 49.39 48.48 46.42 44.44 45.12 50.17 50.38 51.86 53.43 49.16 50.06 49.25 43.52 42.44 41.68 42.77 41.48
55.15 54.88 55.08 54.98 54.55 54.28 54.19 54.36 54.11 53.93 53.48 52.62 50.95 49.32 50.32 52.45 52.80 50.84 49.49 41.65 33.17 44.26 43.72 49.75 49.64 50.51 48.27 49.75 48.83 49.16 48.21 46.32 49.09 47.81 44.39 43.53 43.35 50.81 52.66 50.09 46.63 46.71 45.41 41.97 36.18 39.76 42.75
54.80 54.54 54.55 54.36 54.24 54.25 54.19 54.19 53.74 53.74 53.23 51.95 49.98 48.63 48.57 51.26 54.07 52.42 45.44 35.84 37.95 43.06 47.37 45.77 46.01 45.39 47.53 50.64 50.32 48.58 47.34 48.05 48.90 48.97 44.09 43.72 44.54 52.94 53.50 53.23 51.13 46.20 43.97 46.93 40.19 43.03 41.41
54.33 54.52 54.22 54.10 53.99 53.87 53.80 53.62 53.45 53.43 52.70 51.28 46.47 46.30 47.83 53.89 55.57 50.27 42.13 37.10 41.76 46.76 46.55 44.87 39.80 44.17 41.63 43.27 43.61 48.69 47.59 50.21 49.87 50.97 50.74 46.93 42.68 50.70 53.07 53.28 52.11 48.77 48.37 41.86 44.13 37.12 38.15
54.19 54.22 54.12 53.99 53.81 53.62 53.72 53.37 52.96 52.67 51.92 50.79 46.19 42.72 49.35 52.91 53.24 46.81 37.53 39.47 43.43 47.38 47.75 44.84 43.33 42.74 43.26 43.05 44.35 43.73 44.87 51.48 53.06 52.39 52.01 49.68 46.87 47.11 50.81 49.11 47.50 47.39 45.88 44.47 43.07 43.72 39.60
54.00 53.95 53.87 53.93 53.78 53.70 53.58 53.27 52.71 51.94 50.77 48.62 44.41 37.25 49.88 51.38 40.36 43.83 39.85 42.85 44.79 45.03 47.70 46.32 46.73 45.16 43.72 44.69 42.91 43.35 44.05 46.92 53.57 53.82 49.64 50.71 46.88 43.66 46.30 51.45 53.01 50.61 47.08 44.60 41.84 37.50 41.19
53.50 53.38 53.32 53.46 53.35 53.44 53.48 53.02 52.38 51.48 51.41 46.49 39.82 40.90 48.86 48.27 35.03 38.04 42.26 43.07 44.58 43.27 43.36 43.39 43.08 44.91 46.62 44.26 41.40 44.63 45.98 50.17 51.00 49.79 50.89 51.32 47.13 41.29 43.48 47.32 50.39 48.67 49.36 47.51 46.53 42.53 40.45
53.07 52.76 52.85 52.89 53.09 53.13 52.98 52.69 52.06 51.49 51.60 47.23 41.55 35.14 41.91 44.90 44.27 40.28 38.77 38.58 38.55 44.86 43.68 44.88 43.82 44.83 43.70 43.31 45.67 43.28 44.82 49.51 50.84 49.92 59.38 55.81 48.79 45.46 42.12 44.62 47.22 47.22 49.06 49.36 46.53 42.70 42.70
52.24 52.04 52.29 52.74 52.58 52.81 52.76 52.54 52.08 51.43 51.00 47.38 43.00 37.39 40.45 34.55 38.01 38.05 39.41 38.25 37.05 37.15 42.30 42.51 41.37 41.22 39.80 37.26 40.20 41.37 44.09 43.99 47.12 51.35 51.67 47.37 46.25 47.80 48.14 49.26 49.92 49.16 49.98 49.47 46.69 46.33 43.40
52.48 52.30 52.40 52.70 52.41 52.31 52.26 52.25 52.28 51.69 50.88 45.33 39.21 37.86 40.21 37.44 38.61 37.67 37.94 37.08 36.91 38.18 39.41 38.34 37.24 40.80 40.27 38.63 39.97 36.77 39.35 39.91 40.18 45.36 43.23 45.04 44.95 47.83 46.79 49.43 49.15 47.70 50.44 51.19 49.59 49.19 48.53
51.86 51.86 51.78 52.12 51.97 52.04 52.14 52.23 51.95 51.46 49.50 44.63 45.13 46.22 41.08 36.85 35.78 35.27 35.73 37.21 37.61 39.59 40.92 41.88 40.47 39.18 38.03 40.81 43.70 43.35 43.75 43.60 43.08 42.27 42.10 42.42 41.82 43.60 41.16 47.70 47.59 44.75 48.04 49.86 50.77 51.23 49.96
52.29 51.90 51.84 51.93 52.08 51.83 51.89 51.92 52.15 51.91 50.34 47.51 46.78 44.97 38.53 32.09 34.20 34.59 36.59 37.83 37.68 38.77 37.70 40.95 42.21 39.48 42.34 46.22 46.26 45.17 45.46 45.38 46.10 46.53 47.44 43.23 42.74 44.73 41.77 44.28 38.95 47.01 52.93 53.30 52.10 53.05 51.88
52.46 52.07 52.03 51.86 52.09 51.82 51.83 51.86 51.73 51.51 51.56 47.78 47.51 44.49 39.48 33.29 35.90 35.52 36.79 37.72 39.17 39.98 39.00 40.04 42.14 43.64 46.01 43.81 38.93 36.75 39.63 41.78 43.98 46.95 46.91 48.29 44.41 42.30 39.80 41.62 44.00 48.74 50.68 50.85 50.00 50.05 54.11
52.61 52.63 52.23 51.98 51.88 51.71 51.68 51.91 51.50 51.19 51.99 49.96 48.72 49.00 42.43 34.19 33.60 38.80 36.11 37.60 35.20 36.35 37.79 39.93 43.65 46.50 45.62 41.40 37.94 32.90 33.21 37.68 39.31 42.32 48.20 48.15 47.81 45.43 40.71 38.50 38.19 45.20 52.79 55.48 57.05 47.56 59.07
51.73 52.07 52.07 51.96 51.96 51.78 51.81 51.75 51.94 51.86 51.92 49.98 48.39 50.05 43.28 35.64 37.95 38.96 36.21 36.74 39.93 38.58 36.41 38.78 40.30 39.18 43.71 38.90 34.57 33.33 32.69 40.07 36.38 39.08 41.75 43.31 46.09 43.96 42.46 39.92 43.53 50.84 53.24 58.27 47.13 48.25 59.05
52.18 52.30 52.09 51.63 51.54 51.59 51.68 51.60 51.21 51.23 51.39 50.53 47.11 50.98 45.53 39.73 40.07 41.93 42.03 39.23 39.90 39.01 34.51 40.05 38.71 38.73 38.01 35.50 34.66 35.22 33.99 37.87 39.82 43.11 43.22 42.92 39.02 41.48 43.92 39.93 38.83 57.09 56.14 51.59 53.45 58.53 60.64
52.32 52.38 51.98 52.00 52.07 51.24 51.06 50.98 50.75 50.63 50.54 50.38 44.75 50.96 49.92 42.71 41.25 45.12 44.92 46.00 44.15 43.83 41.14 41.05 39.44 38.84 40.98 39.01 39.76 40.42 37.65 40.47 41.73 39.28 46.90 41.67 45.80 45.12 47.09 49.46 55.72 59.40 58.75 59.59 62.53 61.84 62.43

GFSGBSN_sfc_wetblb_024.txt.gz
Wetbulb
56.81 56.52 56.46 56.13 56.68 56.50 56.13 55.82 55.76 55.79 55.64 55.40 55.22 55.14 55.34 55.36 55.41 55.72 55.96 55.99 56.26 55.68 55.80 56.07 56.92 57.98 54.14 49.85 51.15 55.83 73.14 73.84 70.09 65.48 60.53 57.19 52.93 50.91 49.93 52.33 54.56 56.78 58.18 62.03 63.34 62.45 60.44
57.28 57.07 56.52 56.39 56.37 56.29 55.94 55.56 55.63 55.95 56.00 55.82 55.89 55.90 55.80 55.74 55.81 56.14 56.30 56.14 55.85 55.60 55.49 56.00 56.76 57.86 51.28 41.27 51.98 56.51 58.29 65.19 63.36 60.73 58.46 56.40 54.40 53.74 52.42 53.61 53.07 56.34 56.71 57.69 60.07 61.13 61.23
56.78 56.41 56.08 56.22 56.61 56.53 56.10 55.94 55.28 55.19 55.12 55.12 55.59 55.61 55.41 55.35 55.72 55.89 55.72 55.32 55.38 55.08 55.56 56.35 57.06 57.02 52.43 46.10 53.94 55.49 57.44 61.41 62.37 60.60 56.12 57.56 57.27 53.96 53.64 52.98 56.52 56.33 52.93 54.91 54.89 57.34 59.79
57.28 56.82 56.54 56.67 56.53 56.24 56.14 55.99 55.57 55.71 55.57 55.32 55.32 55.49 55.43 55.24 55.39 55.16 54.80 54.43 54.78 55.22 56.42 57.10 57.93 55.77 47.64 56.33 56.12 54.31 53.93 55.66 58.45 59.27 59.21 58.29 57.78 54.97 52.81 55.04 53.48 50.67 48.80 46.16 52.47 60.14 60.72
57.61 57.50 57.11 56.99 56.66 56.63 56.32 56.09 55.87 55.56 55.40 55.05 55.06 55.16 54.99 54.91 54.68 54.14 53.69 53.85 54.91 57.05 57.53 58.83 54.89 51.83 48.21 62.42 56.53 55.77 54.39 54.56 54.61 57.66 57.49 60.88 55.45 52.24 51.80 48.44 45.22 46.04 43.79 45.86 48.80 58.59 60.11
57.83 57.67 57.32 57.13 56.96 56.63 56.38 56.32 55.93 55.62 55.42 55.05 54.95 54.66 54.72 54.35 53.77 53.23 52.69 53.16 53.95 56.42 58.54 60.37 59.52 50.55 53.57 54.42 59.34 55.83 54.10 55.40 54.45 55.36 55.54 55.25 51.20 48.07 45.88 43.69 40.46 42.99 43.50 45.12 46.74 52.29 57.95
58.04 57.87 57.37 57.06 56.88 56.69 56.42 56.34 56.14 55.80 55.51 55.07 54.80 54.44 54.36 53.83 53.21 52.22 50.48 45.90 45.88 45.76 52.73 50.82 51.54 53.01 54.63 56.93 60.35 56.46 56.01 55.08 54.13 51.64 47.37 49.06 46.63 45.82 46.26 46.92 47.97 47.86 46.32 45.80 48.97 52.79 55.77
57.55 57.46 56.96 57.02 56.81 56.67 56.36 56.24 56.15 55.79 55.53 55.12 54.47 54.28 53.93 53.37 52.63 51.78 48.73 46.19 48.18 47.30 41.26 48.87 52.05 53.29 56.05 56.76 54.74 58.06 57.44 51.96 50.18 46.75 46.90 45.31 44.16 48.09 50.59 49.51 48.09 47.43 46.37 46.48 48.90 51.82 55.31
56.77 56.78 56.65 56.60 56.62 56.40 56.20 55.93 55.81 55.42 54.91 54.83 54.16 54.14 53.52 52.78 51.61 48.33 44.03 45.49 50.96 49.90 39.65 44.56 48.42 48.46 48.77 53.29 51.76 53.74 54.82 52.09 49.42 45.77 45.91 43.95 46.62 51.33 50.71 49.48 47.26 46.49 45.26 46.12 46.49 50.41 57.52
56.73 56.42 56.32 55.94 56.04 55.93 55.71 55.44 54.96 54.71 54.71 54.16 54.07 53.99 53.09 51.67 45.41 45.80 46.23 49.99 51.02 49.97 35.53 41.28 44.16 47.14 48.61 49.97 47.02 54.99 57.20 53.42 49.09 47.20 46.80 45.91 50.48 49.80 49.09 48.83 48.30 41.83 49.29 49.29 48.78 46.64 45.34
56.44 56.00 55.62 55.55 55.61 55.50 55.08 54.75 54.54 54.50 54.34 54.11 53.91 53.48 52.37 51.34 44.23 44.22 48.53 49.53 50.65 44.18 32.01 49.17 47.54 51.76 48.50 47.10 49.08 51.20 56.32 53.03 49.10 48.05 47.08 45.88 48.63 48.52 48.06 49.11 50.29 46.56 50.06 49.35 49.47 46.39 43.39
55.81 55.54 55.03 55.09 55.14 54.90 54.53 54.36 54.30 54.15 53.95 53.87 53.73 52.84 52.04 46.86 44.33 46.96 49.26 48.23 44.59 36.62 31.34 44.63 49.44 46.08 44.90 45.41 47.61 52.20 53.63 54.80 53.57 50.35 48.98 48.76 51.79 50.57 49.87 51.42 51.52 51.38 47.00 46.80 46.49 45.90 40.10
55.32 54.93 54.93 54.96 54.67 54.32 54.11 54.05 54.09 53.89 53.67 53.42 52.59 51.38 50.08 49.17 42.05 46.67 47.96 44.50 33.96 30.65 45.08 45.70 42.99 44.89 43.87 43.58 45.88 46.31 51.32 50.03 47.18 41.42 44.88 48.02 48.83 49.00 51.78 47.02 49.01 47.22 40.48 37.47 37.14 38.40 38.95
54.20 54.72 54.66 54.37 54.18 53.95 54.01 54.01 53.85 53.44 53.32 52.44 50.77 49.73 48.59 48.44 47.12 47.59 44.58 37.22 28.80 39.93 40.61 45.40 44.15 45.25 43.42 44.14 44.28 45.79 43.94 48.09 49.97 43.60 41.32 42.66 41.46 48.33 50.29 47.71 46.57 43.68 43.09 38.69 32.50 33.97 38.03
54.38 54.57 54.47 54.30 54.09 54.01 53.83 53.68 53.31 53.11 52.59 51.33 49.94 44.76 44.40 44.84 48.77 46.48 39.17 30.87 32.35 38.29 42.88 41.76 42.55 39.81 40.82 44.28 43.55 43.39 43.87 43.97 49.48 47.67 41.67 38.89 42.40 49.67 51.95 51.15 49.23 44.57 40.30 44.41 37.54 37.11 36.83
53.91 54.01 53.90 54.08 53.89 53.87 53.87 53.50 53.17 53.01 52.37 50.64 45.14 41.14 41.96 48.79 48.82 43.98 35.11 33.09 35.92 43.16 44.40 43.51 36.64 40.20 36.74 40.16 40.58 41.12 39.97 45.76 46.25 48.65 48.97 44.79 38.29 46.14 50.10 51.00 51.90 46.42 46.39 39.98 35.60 34.94 34.74
53.45 53.31 53.42 53.59 53.44 53.34 53.50 53.44 53.15 52.54 51.80 50.61 41.75 36.70 43.39 47.94 45.34 39.11 31.91 33.39 40.24 44.95 45.21 40.96 38.72 37.93 39.40 39.54 40.77 39.83 41.22 45.39 48.11 48.06 49.22 47.16 42.80 43.11 46.40 45.83 46.22 46.33 43.90 39.09 40.66 39.93 37.13
52.97 53.34 53.36 53.19 53.09 53.23 53.34 53.33 52.66 51.96 50.50 46.09 38.37 32.01 43.77 47.33 32.99 33.60 35.14 37.33 42.55 42.42 44.98 42.84 42.77 41.09 39.24 40.44 38.87 39.94 40.84 44.18 49.42 48.25 43.46 46.23 43.76 40.98 43.46 48.00 50.77 49.58 46.05 42.33 40.44 35.69 38.99
52.95 53.07 52.97 52.99 52.99 53.21 53.25 52.67 52.08 51.11 50.50 42.49 35.73 34.95 43.21 40.95 28.28 29.76 35.40 38.73 40.53 40.30 40.18 40.62 39.70 40.89 41.38 38.25 35.99 40.87 43.00 48.75 46.32 46.24 43.33 46.42 40.84 38.57 38.49 42.48 45.32 44.81 47.54 47.04 39.02 38.25 40.09
52.37 52.39 52.41 52.87 52.95 53.07 53.11 52.40 51.69 51.21 50.72 42.81 36.16 30.74 34.04 36.39 36.63 34.28 33.30 35.86 35.55 41.86 41.23 41.04 39.86 41.51 39.32 37.19 38.73 37.71 40.21 44.46 45.50 45.93 51.41 45.79 41.95 41.49 40.48 42.63 43.96 42.29 46.60 46.76 45.06 42.30 41.12
52.10 52.10 52.02 52.02 52.37 52.97 53.03 52.40 51.80 51.08 50.78 44.90 37.84 32.08 34.37 29.44 32.60 35.26 35.78 35.91 34.47 34.28 39.85 39.93 36.84 39.07 36.97 33.57 36.64 37.28 40.59 40.75 43.65 47.41 43.67 40.22 33.92 39.25 43.06 46.03 47.38 46.53 46.52 47.24 44.77 45.79 42.88
52.17 52.38 52.28 52.33 52.58 52.91 53.03 52.45 51.88 51.36 50.47 44.25 37.61 36.72 35.84 35.89 34.24 32.65 34.77 34.36 34.56 35.89 36.69 35.82 35.54 37.84 36.95 33.14 35.76 34.68 38.04 35.90 36.68 40.99 39.05 39.11 34.59 38.51 41.22 47.14 47.32 45.88 47.80 48.44 47.78 47.50 46.16
52.28 52.41 52.33 52.35 52.46 52.93 52.93 52.63 52.11 51.36 48.59 42.06 44.41 44.48 40.12 35.46 32.11 29.20 30.05 32.49 33.65 36.85 39.25 40.54 39.31 37.30 35.56 37.13 40.40 40.24 40.70 40.64 39.43 37.58 37.25 36.11 35.13 35.45 34.29 44.01 45.80 43.07 46.97 47.29 47.76 48.49 47.42
52.82 52.38 52.26 52.44 52.40 52.25 52.42 52.43 52.21 51.79 49.32 44.78 44.11 43.21 35.56 32.84 33.74 32.28 33.52 35.50 35.34 36.94 35.58 38.48 38.70 35.66 39.23 44.21 43.54 41.21 41.07 39.86 40.41 40.53 42.19 38.50 37.74 35.73 35.01 38.69 36.80 45.32 50.48 50.40 47.31 49.27 49.42
52.49 52.09 52.18 52.37 52.33 52.39 52.12 52.08 52.05 51.73 51.12 46.69 46.55 43.09 38.55 32.37 34.54 34.51 34.31 35.03 35.99 36.67 35.01 37.44 39.59 39.63 41.93 40.05 34.53 31.84 33.46 35.28 39.57 41.56 42.18 43.69 40.79 37.09 33.77 35.28 41.57 46.79 48.45 48.43 45.85 46.68 51.48
51.63 52.09 52.09 52.05 52.01 52.04 52.00 51.91 51.83 52.38 51.84 47.27 45.35 45.39 42.69 35.61 32.06 37.21 35.00 35.12 31.52 30.98 33.93 37.02 41.02 41.71 40.07 36.89 35.28 27.67 28.15 33.83 36.25 41.62 45.73 45.16 44.57 40.52 38.99 36.26 35.47 43.43 50.29 53.66 52.45 43.90 56.58
51.71 52.19 52.26 52.03 52.01 52.08 52.11 51.90 51.71 51.49 51.42 45.58 43.17 45.31 42.06 35.55 38.38 37.51 33.40 32.89 34.93 32.42 31.34 34.17 36.95 36.50 39.29 34.11 34.91 28.81 28.85 36.43 33.42 36.45 39.34 42.08 41.81 38.04 38.78 39.08 40.53 47.25 50.84 55.09 45.64 45.84 56.55
52.34 52.09 52.26 51.76 51.69 51.78 51.67 51.59 51.57 51.19 50.91 45.97 42.96 46.44 43.08 39.34 38.60 40.90 40.13 37.20 36.88 34.71 33.34 34.41 36.32 35.40 33.63 33.71 34.23 32.02 30.86 32.97 34.22 40.62 42.05 40.86 40.60 40.13 41.10 38.88 36.92 52.69 54.09 47.98 50.99 56.71 57.58
52.22 52.34 52.09 52.11 51.34 51.40 51.24 51.22 51.10 51.16 50.84 49.73 42.81 45.49 46.69 42.10 38.17 43.63 43.34 43.77 42.16 40.99 36.97 35.23 36.47 37.62 38.96 34.45 34.48 36.82 34.81 36.26 34.93 34.90 45.59 40.05 44.36 43.20 43.68 45.31 49.85 55.26 55.79 59.71 61.11 59.91 59.90

GFSGBSN_sfc_wetblb_027.txt.gz
Wetbulb
56.59 56.40 56.49 56.25 56.62 56.28 55.69 55.69 55.69 55.51 55.27 55.17 55.15 54.99 55.21 55.21 55.16 55.17 55.37 55.40 55.29 55.33 55.62 55.93 56.27 57.07 53.10 48.06 47.31 52.64 72.63 71.28 69.57 62.81 58.90 56.41 52.93 56.24 48.75 50.09 58.73 59.60 60.39 60.88 62.80 63.23 62.14
56.93 56.79 56.54 56.32 56.10 56.20 55.85 55.69 55.41 55.38 55.68 55.73 55.67 55.85 55.81 55.81 55.91 55.71 55.81 55.73 55.56 54.88 55.37 55.98 56.32 56.70 48.72 39.21 50.39 55.69 57.07 64.92 64.15 61.49 57.58 55.96 53.91 52.42 50.34 50.35 51.03 53.77 57.33 56.87 57.56 58.34 62.35
57.28 57.13 56.75 56.56 56.46 56.34 56.24 56.13 55.75 55.53 55.36 55.48 55.85 55.68 55.57 55.80 55.95 55.99 55.61 55.11 55.17 55.00 55.56 56.51 56.70 55.34 51.17 44.59 51.63 53.25 56.19 58.08 62.11 60.64 55.85 56.89 55.95 52.98 50.90 49.33 53.40 54.27 51.69 53.65 54.03 55.21 57.95
57.95 57.56 57.11 57.05 57.23 56.94 56.72 56.43 56.39 56.44 56.16 55.85 55.78 55.70 55.65 55.67 55.61 55.24 54.65 54.20 54.36 55.40 57.00 57.33 57.59 54.15 44.73 54.44 54.69 52.77 52.01 50.47 60.00 58.11 56.22 57.23 56.42 52.02 50.81 53.26 52.24 48.56 47.59 45.23 51.98 56.61 57.73
58.11 58.08 57.73 57.33 57.00 56.74 56.50 56.50 56.46 56.45 56.07 55.74 55.48 55.34 55.14 55.11 54.95 54.19 53.51 53.63 54.77 57.38 58.06 58.31 54.27 50.16 45.06 59.82 55.65 55.09 52.72 51.42 54.79 56.44 57.29 60.52 54.37 50.67 50.33 47.74 43.92 44.20 42.88 45.04 48.02 56.60 57.69
57.39 57.26 57.06 56.80 56.84 56.74 56.43 56.37 56.15 56.19 55.86 55.44 55.13 54.78 54.56 54.62 54.21 53.39 52.72 53.37 53.71 56.14 58.98 58.67 58.13 48.29 51.43 51.15 58.21 55.52 52.62 54.17 53.41 52.97 53.43 53.64 50.15 45.85 43.99 42.78 39.75 41.59 42.05 44.08 45.25 50.26 55.64
56.69 56.37 56.16 55.96 56.33 56.40 56.39 56.15 55.86 55.66 55.38 55.15 55.09 54.41 54.21 54.11 53.41 52.08 50.28 46.43 44.60 43.45 50.15 49.09 50.13 50.59 52.32 55.31 58.86 54.53 52.93 52.17 51.85 50.75 46.32 49.19 46.56 42.16 45.54 45.43 46.52 46.10 44.84 44.94 47.46 52.30 53.95
56.32 56.13 55.87 55.45 55.95 56.07 55.98 55.62 55.19 55.21 55.11 54.92 54.55 54.35 54.00 53.51 52.50 52.02 46.70 42.95 45.32 43.93 39.15 47.32 47.23 48.71 53.01 53.72 50.62 52.75 53.97 48.94 48.53 44.82 47.05 44.07 44.51 48.09 49.44 48.06 47.17 46.20 44.49 44.71 47.12 51.74 53.00
55.61 55.50 55.45 55.50 55.48 55.50 55.15 54.89 54.68 54.62 54.53 54.43 54.23 53.88 53.45 52.84 51.82 46.96 44.03 44.10 48.26 44.44 36.93 43.03 46.53 46.30 47.15 50.93 48.91 50.04 52.25 50.11 47.51 45.13 44.49 44.63 44.78 49.28 49.18 47.23 45.51 43.57 43.31 45.04 44.99 48.36 52.57
55.68 55.80 55.30 55.07 55.05 54.87 54.70 54.49 54.43 54.31 54.14 53.96 54.04 53.67 52.97 51.61 44.44 44.79 44.50 47.44 47.43 46.84 34.16 40.68 42.52 45.43 47.27 50.29 46.69 53.38 56.38 51.89 47.83 46.20 45.16 43.26 47.52 47.86 46.59 46.41 46.68 40.35 46.50 47.35 46.47 44.18 40.27
55.61 55.46 54.85 54.73 54.62 54.58 54.23 54.19 54.14 53.96 53.78 53.80 53.73 52.91 51.61 51.31 43.61 42.71 45.75 47.56 48.63 41.34 31.10 48.29 44.69 49.44 46.31 46.10 46.73 49.20 55.60 51.64 47.11 46.57 44.92 42.99 45.25 45.79 45.43 47.19 47.65 46.12 48.60 47.23 46.70 43.20 40.26
54.60 54.41 54.43 54.51 54.38 54.37 54.19 53.96 53.92 53.71 53.57 53.20 52.68 51.96 51.34 46.25 43.15 45.27 47.04 46.62 41.71 35.48 30.19 43.71 46.70 43.66 42.92 43.85 45.59 49.61 51.06 52.26 51.12 46.85 46.05 47.42 49.42 48.17 47.04 49.42 49.48 50.04 46.55 44.19 43.55 41.13 36.64
54.20 53.94 54.06 54.05 54.09 54.14 53.92 53.98 53.82 53.55 53.16 52.69 51.54 50.29 49.52 48.73 40.89 44.57 46.41 42.14 32.89 29.25 43.25 42.62 40.89 43.07 41.96 41.56 43.54 46.16 47.59 46.91 44.93 41.39 41.65 44.66 46.35 47.85 49.77 46.12 47.31 46.18 40.03 35.56 33.31 34.59 36.79
53.81 54.18 54.27 54.02 53.92 53.84 53.78 53.82 53.59 53.29 53.14 51.96 50.14 49.25 47.40 47.36 44.98 45.74 41.77 35.38 26.40 38.24 37.44 43.04 42.48 42.50 40.84 43.01 42.26 43.58 46.80 45.63 48.53 43.64 42.75 40.36 39.01 46.42 47.77 46.56 44.57 42.82 41.88 33.45 29.54 30.81 37.21
53.31 53.32 53.44 53.53 53.55 53.55 53.39 53.34 53.35 52.94 52.63 51.43 49.48 44.72 41.67 43.82 46.97 44.23 37.05 28.64 30.69 35.22 41.77 40.68 41.22 38.35 38.41 41.43 41.58 41.88 39.60 46.07 48.82 45.55 41.50 39.86 41.15 47.91 50.56 48.51 48.81 42.67 40.30 43.92 35.16 34.51 33.92
52.85 52.70 53.17 53.22 53.34 53.20 53.30 53.28 52.97 52.69 52.35 51.06 43.92 39.95 39.69 46.56 46.08 41.03 33.98 30.94 33.41 41.41 42.59 41.18 35.11 37.98 33.96 37.46 38.36 38.44 38.73 42.99 43.53 49.02 44.36 41.96 37.18 44.14 48.74 49.67 47.76 46.25 44.07 38.91 32.68 32.89 32.69
52.60 52.55 52.90 53.33 53.39 53.34 53.43 53.26 52.79 52.36 51.53 50.28 38.87 35.14 41.21 44.56 41.56 36.85 29.86 30.98 37.58 42.75 43.43 39.38 36.73 35.75 36.34 36.46 38.45 36.53 38.63 43.72 45.87 45.57 45.59 40.20 38.87 41.23 45.19 43.41 45.06 43.35 41.43 37.61 38.58 35.72 35.22
52.55 53.04 53.20 53.20 53.04 53.16 53.26 52.87 52.40 51.53 50.41 44.87 35.81 30.16 41.76 43.05 31.44 30.04 29.82 34.38 41.06 40.68 42.74 40.38 40.31 38.67 37.13 38.57 36.44 36.55 37.80 41.72 46.45 45.98 40.72 42.64 35.52 39.69 42.88 45.58 48.91 47.60 45.79 40.35 36.58 35.54 36.70
53.02 52.98 53.16 53.10 52.69 53.06 53.10 52.52 52.05 51.02 50.17 41.18 33.71 32.27 41.79 38.92 28.72 29.60 34.55 37.11 40.02 38.37 37.90 38.40 37.82 38.97 40.33 36.84 33.88 39.00 40.72 45.50 45.87 43.34 42.04 42.81 35.66 32.90 35.70 39.03 41.88 42.40 45.27 45.86 43.04 37.78 40.56
52.55 52.59 52.63 53.11 53.00 53.08 53.16 52.54 51.85 51.06 50.52 43.08 36.69 30.57 33.26 34.83 34.79 33.34 31.19 33.66 34.51 40.60 39.37 39.49 38.17 40.12 37.69 35.78 37.66 36.47 38.81 43.85 44.50 44.40 49.37 42.19 34.25 34.46 34.34 36.73 40.93 39.87 43.79 45.62 43.64 40.13 41.65
52.36 52.65 52.80 52.74 52.76 53.19 53.27 52.56 52.01 51.05 50.36 43.54 39.97 32.53 31.61 28.85 30.98 32.16 32.97 33.48 33.96 33.58 38.67 38.56 35.24 36.62 35.41 30.54 34.81 34.83 38.65 39.33 41.62 45.05 41.38 37.74 31.93 34.85 38.16 41.46 43.03 43.37 42.95 45.03 42.43 44.69 42.11
52.58 52.65 52.81 53.03 53.15 52.78 52.72 52.56 52.33 51.35 49.86 43.23 37.77 36.43 38.38 34.59 36.03 31.35 31.50 32.36 33.37 33.72 34.85 35.16 34.79 35.77 34.95 31.43 32.88 31.90 34.71 34.03 35.22 39.06 36.77 36.25 33.55 35.16 36.22 42.56 43.66 42.97 44.88 45.59 45.79 46.04 44.43
52.48 52.37 52.36 52.51 52.87 52.58 52.82 52.81 52.23 51.21 47.78 42.33 43.75 43.00 39.36 36.02 34.43 32.06 30.71 30.74 31.87 35.20 37.64 38.92 36.55 34.72 34.00 35.57 37.99 38.05 38.33 37.42 37.36 35.28 33.84 34.06 33.83 32.78 30.42 38.89 40.00 38.62 44.07 45.25 45.93 46.83 46.23
52.33 52.02 52.36 52.53 52.32 52.28 52.34 52.81 52.52 51.69 48.43 44.78 44.97 43.25 36.20 31.44 33.93 33.09 33.54 34.06 33.18 34.58 33.65 37.37 37.57 35.90 38.34 41.50 41.40 38.70 37.12 37.08 38.33 37.51 39.10 33.95 33.22 33.56 30.91 34.23 31.45 43.15 48.04 48.87 47.13 47.66 46.69
51.89 51.87 52.04 52.25 52.28 52.36 52.28 52.29 52.47 52.04 50.93 43.29 46.22 43.41 38.60 32.80 34.51 34.03 34.14 34.49 34.78 34.69 33.39 33.93 37.25 39.27 39.90 37.35 32.79 30.20 30.42 31.51 34.81 38.48 37.67 39.13 36.49 32.25 30.69 31.06 38.09 44.22 46.69 46.04 44.88 44.19 48.46
51.74 51.89 51.87 51.69 51.74 51.76 52.06 52.13 51.99 52.08 51.40 44.34 42.71 45.48 41.96 35.31 33.41 36.69 33.21 34.19 31.00 32.22 33.29 35.07 38.76 38.93 37.32 33.41 31.80 26.10 25.79 30.36 29.60 36.57 39.77 38.74 39.16 37.65 33.73 30.48 31.58 40.00 49.75 53.23 51.11 43.56 49.92
51.53 51.72 51.79 51.64 51.64 51.73 51.74 51.79 51.93 51.83 51.41 45.30 41.89 43.40 42.78 36.55 36.42 36.26 33.49 31.31 34.75 32.68 31.09 32.24 34.16 35.44 37.01 30.68 30.20 28.53 27.05 34.10 29.92 30.98 32.40 34.47 35.39 33.60 34.93 34.22 38.33 47.19 52.76 55.02 41.32 44.44 54.70
52.27 52.17 52.20 51.76 51.58 51.46 51.58 51.78 51.70 51.49 51.34 46.91 43.21 45.05 42.91 38.98 38.62 39.90 40.06 37.08 36.75 35.79 31.75 32.31 32.69 32.87 31.10 30.64 30.68 31.94 29.65 32.54 30.64 35.56 34.68 36.40 37.12 35.36 36.11 35.73 32.48 52.19 52.20 48.48 51.47 56.23 55.81
52.21 52.34 52.42 52.46 51.97 51.75 51.83 51.87 51.67 51.48 51.37 50.07 42.06 47.02 47.54 41.81 39.75 41.85 42.35 42.32 40.91 40.09 36.66 36.51 33.19 33.57 34.52 32.08 33.45 33.60 32.82 34.59 31.44 30.37 39.16 34.89 40.67 39.13 40.77 41.15 48.57 51.40 53.55 54.05 54.79 55.87 58.02

GFSGBSN_sfc_wetblb_030.txt.gz
Wetbulb
57.45 57.43 57.28 57.05 57.17 56.86 56.55 56.32 56.54 56.70 56.16 55.93 55.74 55.60 55.43 55.44 55.34 55.64 55.71 55.62 55.64 55.35 55.52 56.00 56.26 56.72 52.07 46.20 45.69 65.78 73.25 69.87 72.80 66.71 66.23 64.64 64.35 61.96 52.05 55.51 60.57 59.14 60.02 61.83 62.79 60.91 60.54
57.83 57.75 57.61 57.21 56.86 56.58 56.23 56.19 56.26 56.67 56.53 56.28 56.19 56.28 56.22 56.05 55.76 55.97 56.02 55.96 55.73 54.89 55.39 55.95 56.40 56.28 47.00 37.16 48.70 53.90 65.63 67.47 70.12 62.79 61.40 57.89 58.90 59.40 51.02 51.47 54.74 55.65 59.34 59.74 59.21 56.26 59.08
58.29 57.67 57.37 57.13 56.72 56.55 56.52 56.21 56.16 56.07 56.13 56.01 55.89 56.17 56.07 55.91 55.77 56.09 55.85 55.38 54.77 54.65 55.54 56.74 56.77 54.23 49.49 42.02 50.86 51.43 63.96 61.73 63.80 60.44 54.91 55.66 55.17 56.66 51.37 48.56 51.39 51.97 49.69 51.83 53.12 53.09 55.35
57.22 56.89 56.68 56.63 56.75 56.78 56.45 56.28 56.04 55.93 55.88 55.70 55.72 55.48 55.56 55.52 55.40 55.38 54.58 54.15 54.39 55.64 57.37 57.92 57.70 52.75 42.43 51.64 53.42 51.56 52.05 55.93 60.90 59.10 54.82 56.55 54.90 51.06 48.90 51.25 50.35 47.11 46.36 43.51 49.83 52.83 53.90
57.06 56.89 56.74 56.66 56.34 56.21 56.24 56.10 55.64 55.53 55.39 55.26 55.24 55.26 55.24 55.12 54.86 54.20 53.13 53.89 55.05 58.82 58.75 58.54 52.41 48.16 43.11 57.94 53.78 52.35 50.83 49.57 54.81 56.36 56.35 58.94 53.85 48.98 48.56 45.54 42.55 42.62 40.95 43.37 47.30 52.70 55.78
56.76 56.68 56.27 55.35 55.36 55.84 55.73 55.35 55.35 55.12 55.14 55.08 54.85 54.65 54.59 54.53 53.91 52.96 52.46 53.52 53.90 57.97 57.14 57.05 56.38 46.00 50.07 49.89 55.34 54.88 50.85 53.74 52.54 53.35 53.59 52.74 48.18 45.14 42.34 41.85 37.61 40.20 40.59 41.87 44.72 49.63 54.20
55.70 55.55 55.08 54.67 54.54 55.27 55.29 55.08 55.02 54.95 54.95 54.71 54.50 54.19 54.09 53.72 52.94 51.90 50.29 44.94 43.10 42.03 44.23 49.16 48.83 48.64 51.49 53.46 55.96 52.01 51.64 51.17 51.94 49.30 44.74 48.10 44.28 42.27 43.77 43.78 44.87 44.94 43.84 43.79 46.22 50.00 53.01
55.23 55.32 54.73 54.31 54.16 54.42 54.47 54.34 54.44 54.20 54.28 54.44 53.91 53.66 53.39 52.88 52.04 51.84 45.17 43.07 42.77 42.13 37.32 45.52 45.27 47.12 52.91 51.14 48.96 51.45 52.29 47.64 47.45 44.12 46.04 42.82 43.37 47.31 48.22 46.37 46.02 45.06 43.25 43.13 45.87 49.03 50.52
54.65 54.57 54.24 54.27 54.48 54.47 54.53 54.46 54.38 54.19 54.13 53.91 53.80 53.43 52.75 51.99 51.51 45.53 42.50 42.84 45.70 42.52 35.36 41.85 45.10 45.30 46.21 48.64 46.70 48.21 49.88 48.16 45.75 43.74 45.44 44.32 44.32 49.60 48.64 45.51 44.63 41.87 43.30 43.68 43.78 46.63 49.12
54.35 54.68 54.86 54.84 54.63 54.57 54.44 54.34 54.25 54.07 53.93 53.78 53.66 53.29 52.23 51.11 43.37 43.51 41.70 44.85 45.15 44.76 32.24 39.39 41.25 44.64 47.58 47.32 44.11 51.94 51.95 50.06 46.65 45.88 43.33 42.77 47.64 48.71 46.04 45.98 45.30 38.42 45.54 46.59 45.57 42.36 39.33
54.73 54.62 54.41 54.22 54.16 54.13 54.17 54.11 53.97 53.80 53.58 53.72 53.58 52.75 51.34 50.61 42.42 40.62 42.80 45.58 46.05 38.97 29.68 46.64 41.80 47.82 46.55 44.84 45.47 47.60 53.91 49.65 45.14 44.74 44.29 42.93 43.78 45.06 45.08 46.01 46.49 44.71 47.48 45.66 45.16 41.79 39.12
54.33 53.91 53.62 53.53 53.26 53.56 53.54 53.45 53.49 53.29 53.19 53.17 52.95 52.24 51.09 45.84 41.93 43.71 45.22 44.74 39.59 34.71 29.11 42.50 44.39 41.84 41.90 42.74 43.75 47.80 49.18 51.16 49.54 45.85 44.23 44.93 47.10 47.72 45.73 47.44 48.05 48.49 45.09 42.05 40.63 39.09 35.42
53.43 53.02 52.90 53.08 53.29 53.51 53.35 53.35 53.29 53.19 52.84 52.27 51.60 50.59 48.87 47.75 40.14 44.11 44.35 39.48 31.73 28.04 41.74 40.29 39.35 41.69 40.74 40.34 41.83 44.42 45.06 46.04 43.43 38.56 39.54 43.31 45.14 45.65 47.02 43.97 45.42 45.02 40.21 33.69 32.60 33.60 35.58
53.12 53.26 53.57 53.66 53.47 53.49 53.33 53.37 53.39 53.00 52.55 51.72 50.05 49.30 45.79 46.40 45.09 43.69 39.99 34.38 24.74 36.28 35.13 41.67 41.36 40.87 38.63 40.67 40.95 42.31 42.91 43.61 45.67 42.65 40.81 39.05 36.77 45.15 46.60 44.47 42.48 41.24 39.60 33.17 29.27 30.05 35.52
52.82 53.08 53.50 53.35 53.37 53.37 53.39 53.21 53.02 52.59 51.93 51.04 49.62 42.01 40.75 42.72 45.94 42.36 36.04 25.98 28.38 32.71 40.15 38.87 39.37 36.22 36.47 39.57 39.44 39.93 38.51 43.27 46.20 43.25 39.80 37.56 39.25 46.77 47.48 47.08 47.34 40.36 40.17 41.75 34.32 32.96 32.17
53.07 53.10 53.13 53.21 53.43 53.27 53.10 53.19 52.86 52.57 51.87 50.62 43.09 39.46 38.07 44.82 42.99 39.62 33.38 29.12 31.49 39.77 40.68 39.27 32.74 36.25 32.60 35.42 36.54 36.05 37.43 41.59 42.05 45.45 42.77 40.25 36.79 43.85 47.36 47.63 47.20 43.75 43.55 37.80 32.33 30.60 28.76
53.10 52.80 52.94 53.33 53.45 53.12 53.29 53.43 52.84 52.37 51.29 49.70 37.55 33.62 39.81 44.13 40.97 35.69 26.40 29.02 35.14 40.83 41.65 37.11 35.03 34.44 34.30 34.76 36.25 34.96 36.64 41.48 43.52 43.89 44.44 38.84 37.63 38.42 44.60 43.53 44.21 40.99 39.42 36.45 39.02 34.47 32.33
52.66 53.31 53.52 53.66 53.41 53.37 53.41 53.18 52.63 51.62 50.21 43.56 33.95 29.00 40.31 41.08 30.63 29.44 28.29 32.84 38.38 38.06 39.81 38.37 38.64 37.05 35.85 37.01 35.13 35.70 37.10 39.83 45.05 44.11 39.92 40.86 33.01 36.87 39.00 43.21 47.82 48.04 43.91 38.31 36.87 34.12 32.61
52.97 53.40 53.48 53.60 53.64 53.79 53.58 52.88 52.20 51.14 50.27 40.41 32.55 32.58 40.33 38.57 26.25 26.94 32.44 34.69 37.59 37.00 36.55 36.34 35.67 38.86 38.88 35.41 32.04 37.71 39.07 44.29 44.08 42.89 40.76 41.10 33.66 31.00 34.69 40.45 41.60 40.77 44.31 40.90 43.09 36.29 38.02
52.68 53.11 53.24 53.60 53.58 53.71 53.62 52.63 51.77 51.13 50.69 41.39 33.90 29.23 32.68 35.75 32.03 28.74 29.00 29.96 32.81 40.11 38.65 38.18 36.53 38.27 36.02 34.50 36.20 34.57 37.45 42.63 43.08 44.39 48.02 41.74 32.92 32.18 31.65 34.62 39.12 37.60 41.70 43.24 42.97 40.10 40.69
52.78 52.93 52.75 52.79 53.26 53.71 53.40 52.81 52.02 51.14 50.51 41.43 34.55 31.13 35.97 27.15 29.36 33.83 28.75 30.84 32.50 31.20 37.10 38.75 37.05 35.03 33.51 29.05 32.51 32.72 36.72 37.34 40.42 43.51 39.68 36.97 32.24 33.64 35.87 39.52 40.72 40.75 41.05 42.36 40.58 43.41 40.92
52.32 52.32 52.43 52.54 52.56 52.62 53.24 53.06 52.44 51.46 49.05 39.69 32.75 36.05 37.86 34.59 35.33 34.05 32.05 27.80 30.70 32.18 33.09 33.55 35.43 34.87 34.43 29.72 31.25 29.57 32.61 32.73 33.19 37.55 34.65 34.89 32.13 33.34 34.24 40.22 40.77 39.05 41.97 43.38 43.51 42.82 42.07
52.19 52.18 52.16 52.35 52.42 52.58 52.85 53.06 52.27 51.12 46.92 42.27 43.50 43.41 38.35 35.69 31.92 32.38 29.70 31.06 31.39 33.19 35.38 38.49 36.58 34.49 33.04 35.25 36.75 36.47 36.19 35.89 36.29 33.31 32.73 31.94 32.65 31.43 29.49 36.98 37.81 35.66 40.98 42.74 43.03 44.17 43.88
52.28 52.15 52.26 52.07 52.10 52.00 52.43 52.96 52.78 51.55 47.98 42.31 41.67 42.58 36.91 31.39 33.71 32.95 34.06 33.67 32.62 33.34 32.64 35.82 36.37 33.09 37.69 40.19 39.24 36.47 35.15 35.41 36.29 36.22 36.25 31.42 31.39 31.81 29.47 32.85 28.05 38.56 44.65 46.07 44.86 46.01 45.70
52.42 51.92 52.11 52.05 52.18 52.04 51.93 51.96 52.69 52.04 51.06 43.36 42.15 42.32 38.14 31.55 33.88 33.48 33.60 33.16 33.23 33.36 31.94 33.19 35.59 37.04 38.59 36.84 31.58 28.39 27.29 28.75 32.58 35.86 35.75 36.88 32.36 29.34 28.83 29.15 35.97 40.07 46.27 47.26 45.51 44.78 48.01
52.11 52.42 51.94 51.96 51.91 52.10 51.94 52.06 51.93 52.18 51.44 43.44 42.42 43.60 41.91 35.49 33.08 35.90 33.02 33.63 30.78 29.76 31.37 33.32 37.21 36.84 36.70 32.07 29.55 24.06 22.76 27.05 28.82 32.41 35.97 35.88 36.95 32.45 30.00 28.54 28.42 38.92 49.91 53.21 52.47 42.23 50.46
51.90 52.23 52.09 52.00 52.11 52.05 52.24 52.44 52.28 52.10 51.40 44.75 43.35 43.61 41.65 36.33 38.05 36.97 34.02 32.50 35.11 34.33 32.43 31.86 32.99 33.67 35.00 31.68 29.31 27.00 24.65 32.06 26.73 28.49 27.51 29.13 31.51 28.92 30.20 31.09 35.47 43.55 50.83 54.32 41.08 42.99 53.62
52.28 52.38 52.52 52.34 52.15 52.19 52.18 52.16 52.38 52.46 52.11 48.15 44.59 43.37 42.89 38.65 38.85 40.30 40.45 36.90 36.91 35.66 31.23 32.75 31.03 31.79 31.68 29.07 28.51 27.49 29.67 30.47 28.87 30.84 30.40 29.41 29.55 29.21 30.36 30.34 29.05 49.36 50.05 47.58 49.33 53.50 54.94
52.24 52.11 52.20 52.38 52.69 52.73 52.52 52.55 52.46 52.36 52.17 51.31 43.81 45.31 46.87 41.29 39.38 42.14 42.02 42.73 41.37 40.07 36.76 36.79 35.39 32.30 36.86 32.06 33.02 32.66 30.42 32.67 30.25 27.26 35.84 30.46 35.96 34.67 34.17 34.12 43.08 50.75 51.33 53.23 53.95 54.63 55.29

GFSGBSN_sfc_wetblb_033.txt.gz
Wetbulb
57.94 57.75 57.70 57.40 57.13 57.08 56.52 56.53 56.36 56.40 55.86 55.89 55.82 55.74 55.78 55.68 55.81 55.86 56.09 56.25 56.52 56.06 55.95 56.14 56.37 56.30 54.59 50.17 47.53 63.98 72.95 69.01 73.39 70.51 68.08 67.00 65.04 64.44 61.13 63.03 64.10 63.17 63.10 63.25 64.68 64.31 63.35
57.31 57.12 57.02 56.65 56.18 56.00 56.17 56.19 55.80 55.75 55.62 55.32 55.77 55.80 56.01 55.95 56.01 56.11 56.22 56.05 55.80 55.14 55.69 56.14 56.25 55.66 50.67 41.47 51.30 55.96 65.86 65.85 69.88 68.34 66.97 67.23 66.04 66.74 62.55 59.90 61.37 60.93 62.68 61.20 58.88 60.19 61.35
57.06 56.81 56.54 56.08 55.53 55.51 55.45 55.23 55.03 54.92 54.87 54.87 55.39 55.63 55.54 55.52 55.54 55.68 55.62 55.20 54.70 54.74 55.71 56.28 56.49 54.52 50.55 46.48 53.98 62.33 65.87 65.93 69.74 67.00 64.65 66.13 67.74 64.15 61.13 53.96 58.80 56.07 52.55 54.94 55.41 56.97 57.18
56.67 56.35 55.65 55.16 54.91 55.21 55.02 54.62 54.48 54.54 54.52 54.56 54.65 54.84 55.00 54.75 55.08 54.99 54.34 53.91 55.45 57.99 57.61 56.93 57.57 54.19 46.88 53.29 55.06 54.42 63.97 62.35 69.65 66.19 64.57 64.91 62.44 64.60 55.16 55.18 53.51 52.11 52.41 50.27 54.46 55.79 56.92
55.81 55.69 55.47 54.64 54.78 54.80 54.76 54.42 54.20 54.53 54.94 54.77 54.86 54.80 54.74 54.61 54.24 53.75 52.88 53.41 57.06 59.41 59.65 58.30 53.91 52.35 46.40 58.78 52.44 53.21 56.85 58.93 65.91 64.16 60.61 61.64 59.56 56.29 53.85 51.35 48.89 49.51 47.50 49.57 51.76 56.32 57.79
55.50 55.40 54.79 54.53 54.39 54.73 54.69 54.63 54.61 54.65 54.61 54.59 54.46 54.44 54.40 54.08 53.42 52.50 52.40 52.59 56.26 58.05 57.32 57.54 55.64 48.84 50.46 50.09 55.28 53.36 55.12 59.83 58.42 59.24 56.86 55.59 54.51 51.81 51.39 49.29 43.64 45.52 46.56 48.91 49.91 54.43 57.82
54.70 54.53 54.50 54.45 54.25 54.40 54.62 54.69 54.44 54.55 54.71 54.58 54.48 54.17 53.95 53.17 52.48 51.61 50.96 50.90 48.31 47.76 47.17 52.76 52.43 49.79 53.25 55.33 58.77 53.80 52.94 55.74 55.41 54.25 48.97 52.86 48.80 46.56 48.95 49.73 49.48 48.34 48.19 49.30 51.27 54.02 56.37
54.54 54.39 54.40 54.23 53.90 54.17 54.09 54.18 54.32 54.32 54.36 54.32 54.01 53.93 53.58 53.02 51.82 51.56 49.57 46.32 44.00 44.62 40.44 47.75 46.35 48.61 53.27 54.80 50.95 52.99 53.37 49.62 50.00 47.04 50.23 49.30 46.10 50.27 51.11 50.39 49.14 48.24 47.24 48.49 51.06 52.92 53.03
54.32 53.95 53.92 53.69 53.46 53.31 53.49 53.60 53.91 53.97 53.84 53.84 53.62 53.47 52.92 52.39 51.40 48.42 46.31 45.57 48.99 48.38 40.91 45.15 47.27 47.73 49.53 51.15 49.28 51.42 51.87 50.77 49.08 47.51 47.48 46.56 48.48 51.22 50.03 49.17 47.99 48.35 46.52 47.57 48.55 51.36 53.17
53.91 53.97 54.00 53.25 53.10 53.17 53.56 53.76 53.76 53.62 53.51 53.43 53.39 53.06 52.28 51.12 47.39 46.30 45.08 47.84 48.94 47.79 39.32 44.27 44.60 47.66 48.82 51.08 47.90 53.95 54.33 51.83 49.48 47.09 48.44 48.10 51.23 49.61 48.80 47.99 49.52 45.65 49.74 48.79 48.51 48.47 46.43
53.80 53.87 53.70 53.71 53.65 53.56 53.60 53.60 53.47 53.52 53.25 53.08 53.04 52.24 51.13 50.28 46.20 45.01 47.27 49.02 49.38 45.49 34.90 46.84 44.55 51.03 50.13 49.44 49.46 49.84 54.42 52.81 48.81 48.50 49.13 47.22 48.55 48.48 47.77 48.47 50.96 47.90 50.82 49.05 48.93 48.73 48.87
53.34 53.13 52.99 53.25 53.20 53.44 53.58 53.27 53.33 53.27 53.12 52.86 52.24 51.49 50.98 47.64 47.17 48.23 48.88 48.09 46.10 38.76 33.51 44.62 45.70 44.71 45.73 47.66 47.46 50.04 50.98 54.24 53.47 49.89 50.00 49.51 51.20 51.24 50.99 51.78 51.85 52.54 49.91 50.06 49.45 48.64 42.95
52.90 53.05 52.96 53.06 53.21 53.45 53.37 53.21 53.37 53.12 52.78 52.08 51.00 50.03 48.84 48.82 44.19 49.12 47.83 45.48 37.99 34.04 44.67 41.85 42.80 45.30 44.89 44.60 45.40 47.78 47.70 47.92 47.34 44.53 45.02 48.24 47.92 50.90 52.36 49.49 51.78 51.04 48.20 42.90 41.45 41.43 41.28
52.38 53.52 53.67 53.72 53.39 53.35 53.35 53.35 53.29 52.98 52.59 51.52 49.62 48.89 47.32 47.99 49.52 47.74 46.90 40.05 32.08 38.21 38.83 44.13 43.64 44.27 42.50 44.06 44.79 45.26 46.27 45.60 50.42 48.92 46.55 43.66 41.75 48.35 50.95 50.20 47.74 48.76 48.05 42.74 38.12 39.90 42.81
52.32 53.43 53.71 53.62 53.62 53.47 53.49 53.35 53.13 52.84 52.23 50.86 49.23 46.59 46.24 47.99 48.31 47.12 43.02 32.10 34.18 37.19 39.27 38.92 41.85 40.61 40.94 42.43 42.54 43.43 45.26 46.50 49.41 49.96 45.96 44.47 44.30 49.87 50.25 51.13 51.38 47.92 46.11 49.96 44.45 43.64 42.59
52.35 53.04 53.56 53.80 53.74 53.62 53.68 53.49 53.12 52.92 52.25 50.50 45.66 42.37 43.93 47.56 47.14 46.52 38.91 32.60 35.77 40.37 40.89 41.25 36.11 39.53 37.13 39.51 41.13 41.75 43.36 44.34 46.38 48.37 49.04 48.27 44.18 49.46 49.88 51.44 51.46 49.34 51.01 43.70 45.67 39.05 38.36
52.58 53.32 53.83 53.87 53.93 53.88 53.80 53.66 53.00 52.54 51.51 48.83 43.30 39.78 45.61 47.38 46.68 42.15 33.07 33.28 35.81 41.38 41.95 39.28 38.06 37.34 38.76 38.27 40.34 40.04 40.93 43.73 44.83 46.21 49.05 47.64 46.40 45.54 49.76 47.86 47.27 46.51 46.56 47.87 47.53 45.49 41.08
52.74 53.58 53.74 53.81 53.58 53.70 53.85 53.56 52.51 51.40 50.04 46.30 41.04 35.76 46.00 46.08 37.07 37.13 33.35 34.67 38.42 39.30 42.29 39.93 40.92 40.25 39.33 40.10 39.27 40.06 39.87 42.67 45.46 47.48 44.32 46.21 45.53 44.90 46.13 51.07 52.14 50.20 48.63 48.35 43.91 43.18 44.90
53.27 53.58 53.69 53.63 53.64 53.79 53.74 53.17 52.21 50.94 49.71 46.47 38.88 37.15 45.79 45.52 30.94 32.39 35.53 35.02 37.60 38.24 38.74 38.67 37.55 40.60 41.55 39.71 37.09 40.24 41.91 45.15 45.78 46.67 44.21 46.14 43.54 42.61 44.32 47.82 49.11 48.24 49.88 49.66 49.49 48.94 45.02
52.72 52.76 52.85 53.28 53.56 53.56 53.64 52.96 52.03 51.24 50.46 46.61 40.45 34.24 39.42 40.30 38.79 33.29 31.20 32.83 33.29 39.67 38.53 39.44 38.70 39.81 38.82 38.38 40.87 38.18 39.46 43.01 44.41 45.62 47.74 46.75 43.13 43.52 42.67 45.23 45.55 44.39 47.13 49.38 48.60 45.65 45.72
52.49 52.49 52.56 52.52 53.04 53.30 53.54 52.94 52.26 51.37 49.83 46.84 41.50 35.97 37.78 32.02 34.64 34.90 34.93 33.32 32.68 32.81 37.04 39.41 36.11 36.12 34.33 34.03 36.36 36.43 38.60 40.28 42.73 44.86 44.33 44.63 39.84 41.52 42.50 43.04 43.49 43.90 44.32 45.66 46.08 48.36 46.55
52.30 52.41 52.51 52.39 52.35 52.15 52.87 53.10 52.44 51.34 48.32 45.73 39.43 37.99 39.13 34.50 37.00 35.17 34.37 32.60 32.17 33.83 33.93 33.36 34.46 36.61 35.74 34.44 35.60 33.86 36.26 38.17 37.93 42.37 41.51 43.07 39.13 40.41 39.20 42.22 43.30 42.46 44.79 45.39 45.85 46.43 46.92
52.55 52.51 52.37 52.31 52.41 52.37 52.46 52.80 52.56 51.00 48.37 45.28 46.08 45.24 39.22 35.27 34.34 33.65 33.88 33.77 33.64 35.55 36.65 37.99 35.86 34.75 33.68 36.36 38.88 40.20 40.99 40.72 40.21 38.30 38.21 39.10 39.10 38.05 35.38 41.16 41.55 39.51 43.86 45.50 46.58 48.17 48.06
52.40 52.40 52.51 52.45 52.46 52.29 52.39 52.86 52.71 52.00 49.62 47.77 45.93 44.05 37.99 32.18 33.95 33.18 33.98 34.99 34.36 35.55 33.45 36.97 37.84 35.36 38.45 42.66 42.48 42.34 40.88 40.21 40.17 40.11 41.12 37.74 38.55 39.42 35.56 38.11 31.92 44.55 48.82 48.74 48.52 49.26 50.26
52.19 52.26 52.40 52.30 52.30 52.39 52.33 52.52 52.85 52.56 51.49 47.99 48.20 43.76 39.03 33.60 35.06 35.05 35.15 35.06 36.31 37.16 35.42 35.54 38.13 40.78 42.45 39.95 35.79 32.69 34.87 35.64 37.60 39.39 39.56 40.43 38.45 35.89 33.77 35.16 39.75 41.90 45.75 49.02 49.53 49.31 55.25
51.94 52.23 51.94 52.17 52.18 52.24 52.33 52.41 52.61 52.81 52.13 48.98 47.86 48.47 43.38 35.74 34.31 37.76 35.49 36.06 32.94 32.43 34.06 36.34 40.97 43.18 42.17 39.01 34.85 27.64 28.14 31.62 31.61 36.63 40.97 40.10 39.81 36.41 35.52 31.76 31.66 43.61 48.90 53.36 54.95 44.93 56.01
51.84 52.00 52.06 52.15 52.19 52.24 52.48 52.65 52.65 52.96 52.43 49.38 47.41 48.08 44.02 36.77 38.92 38.63 34.78 35.05 37.09 35.57 33.97 35.49 36.62 37.86 41.37 35.99 30.76 27.89 28.79 34.93 29.78 30.53 34.03 34.03 34.64 32.06 33.35 33.10 37.91 45.72 50.20 55.70 45.20 47.60 57.49
52.16 52.38 52.44 52.57 52.34 52.21 52.42 52.66 52.85 53.08 53.07 51.01 46.40 47.29 45.33 39.17 38.85 40.82 40.79 37.51 37.05 36.65 32.80 35.93 35.56 36.74 35.93 31.08 30.97 31.55 30.98 34.03 32.97 35.52 34.33 34.11 33.01 32.23 33.80 31.66 29.69 47.54 48.52 44.79 53.67 57.15 57.47
52.03 52.03 52.15 52.24 52.44 52.50 52.31 52.61 53.06 53.39 53.45 52.51 46.56 46.87 47.43 42.05 40.50 44.58 44.62 45.25 43.61 42.65 38.34 37.70 36.54 36.57 38.18 35.10 33.98 33.60 32.99 35.26 33.91 28.95 39.96 33.07 37.41 36.69 37.20 36.94 45.84 48.87 50.13 53.90 56.66 55.65 57.45